     2              OBSERVATION DATA    GPS                 RINEX VERSION / TYPE
teqc 2002Apr3 20041109 01:33:07UTC                          PGM / RUN BY / DATE
                                                            COMMENT
L2: 1 -> 1; 5 -> 5; 60 -> 9                                 COMMENT
L2: 1 -> 1; 5 -> 5; 60 -> 9                                 COMMENT
L2: 1 -> 1; 5 -> 5; 60 -> 9                                 COMMENT
L2: 1 -> 1; 5 -> 5; 60 -> 9                                 COMMENT
L2: 1 -> 1; 5 -> 5; 60 -> 9                                 COMMENT
Original Marker Name: 0075                                  COMMENT
Campaign Name: CSRC/Caltrans post-San Simeon                COMMENT
4-Character Station Name: PM46                              COMMENT
6-Character Antenna Code: TRZEPH                            COMMENT
Vertical Measurement Point: BPA                             COMMENT
Vertical Offset to Rinex Ref. Point: 0.0000                 COMMENT
Radial Measurement Point: RRP                               COMMENT
Radial Offset to Rinex Ref. Point: 0.0000                   COMMENT
Antenna Height from Field Measurement: 1.8000 m             COMMENT
Original XYZ: -2652907.0224 -4470996.4458 3683024.0781      COMMENT
New XYZ position is based on association with SCEC monument COMMENT
E1F1A9P1+0011. Position of that monument is believed to be  COMMENT
valid to within 1 m horizontally; vertical accuracy         COMMENT
should be no worse than 3-times this value.                 COMMENT
                                                            COMMENT
Revised Rinex header created by UCSD GPS archive for        COMMENT
GSAC on 11-Feb-2005 (2005:042) 22:02:55 GMT                 COMMENT
For assistance contact dagnew@ucsd.edu                      COMMENT
or anderson@python.ucsd.edu                                 COMMENT
                                                            COMMENT
SLO 101 PM 46.87                                            MARKER NAME
0075                                                        MARKER NUMBER
R. Quinley CALIF DEPT TRANSPORTATION DISTRICT 5             OBSERVER / AGENCY
0220310075 TRIMBLE 5700 NP 2.01 / SP 0.00                   REC # / TYPE / VERS
12422830 TRM41249.00                                        ANT # / TYPE
 -2652905.0000 -4470992.0000  3683021.0000                  APPROX POSITION XYZ
        1.8000        0.0000        0.0000                  ANTENNA: DELTA H/E/N
     1     1     0                                          WAVELENGTH FACT L1/2
     7    C1    L1    L2    P1    P2    S1    S2            # / TYPES OF OBSERV
     0                                                      INTERVAL
  2004     7     1    17    50   15.000000                  TIME OF FIRST OBS
  2004     7     1    18    45   30.000000                  TIME OF LAST OBS
                                                            END OF HEADER
 04  7  1 17 50 15.0000000  0  8G 3G 9G14G15G18G19G21G22
  21728016.9394      51741.50049     30989.93047                  21728014.7404
        48.0004         36.2504
  23403353.6724      -4976.30549     -7935.50846                  23403351.9714
        42.2504         25.0004
  20666921.9374    -143826.22749   -102882.91448                  20666919.3634
        50.2504         41.5004
  19973872.0314      -6724.96949     -9174.44548                  19973869.6044
        50.0004         42.0004
  22118854.9304     140041.14149     91226.38347                  22118851.9524
        47.0004         34.0004
  22765110.9274    -148816.81649   -107138.53547                  22765106.9204
        43.7504         31.2504
  22425924.3814     184600.33249    121821.07047                  22425921.3194
        47.0004         31.5004
  20758184.0114      42935.70749     24873.80548                  20758179.5184
        51.0004         41.2504
 04  7  1 17 50 30.0000000  0  8G 3G 9G14G15G18G19G21G22
  21729981.4074      62065.66049     39034.72347                  21729979.1324
        48.2504         35.2504
  23403157.6334      -6005.19549     -8737.27746                  23403155.9074
        41.5004         25.5004
  20661413.6444    -172771.83249   -125437.93048                  20661411.1334
        50.7504         41.2504
  19973589.6144      -8209.33249    -10331.10248                  19973587.1284
        50.5004         42.0004
  22124132.0134     167772.85949    112835.50847                  22124128.4364
        47.2504         33.7504
  22759364.6184    -179016.84449   -130671.03147                  22759360.2114
        44.7504         30.7504
  22432931.3314     221423.29349    150514.26247                  22432928.8254
        46.5004         31.0004
  20759765.5194      51246.38749     31349.65248                  20759760.8034
        51.7504         41.0004
 04  7  1 17 50 45.0000000  0  8G 3G 9G14G15G18G19G21G22
  21731957.5274      72451.33249     47127.44947                  21731955.6104
        48.7504         35.5004
  23402977.3324      -6954.66849     -9477.11747                  23402974.7134
        41.2504         25.7504
  20655916.1914    -201660.11349   -147948.27048                  20655913.9224
        50.7504         41.0004
  19973314.3424      -9654.27349    -11457.03548                  19973312.2194
        50.2504         41.7504
  22129400.8284     195460.79749    134410.50047                  22129398.0984
        47.2504         34.0004
  22753627.8664    -209162.59449   -154161.21547                  22753623.5104
        44.5004         30.5004
  22439939.3894     258251.60549    179211.60247                  22439936.7804
        46.7504         30.0004
  20761343.1674      59536.53949     37809.50048                  20761338.3234
        51.2504         41.0004
 04  7  1 17 51  0.0000000  0  8G 3G 9G14G15G18G19G21G22
  21733946.9374      82903.85949     55272.26247                  21733944.7654
        49.0004         35.7504
  23402812.2674      -7819.17649    -10150.74247                  23402811.0104
        40.5004         26.0004
  20650431.0994    -230485.49249   -170409.59848                  20650428.5374
        50.7504         41.7504
  19973048.2694     -11054.28949    -12547.95748                  19973045.3484
        50.2504         42.0004
  22134662.3424     223110.26649    155955.51647                  22134659.3224
        47.0004         34.0004
  22747902.9794    -239248.46149   -177604.74247                  22747898.5794
        45.0004         31.0004
  22446949.6394     295090.23449    207916.97747                  22446946.9244
        46.5004         30.0004
  20762917.8564      67811.58249     44257.58648                  20762913.3634
        51.5004         41.0004
 04  7  1 17 51 15.0000000  0  8G 3G 9G14G15G18G19G21G22
  21735949.6844      93428.80949     63473.52047                  21735947.6354
        50.0004         35.5004
  23402664.6304      -8592.82849    -10753.60247                  23402664.1324
        36.7504         26.5004
  20644958.9754    -259242.07049   -192817.31248                  20644956.1404
        51.0004         41.5004
  19972791.2344     -12403.47349    -13599.28148                  19972788.8544
        49.2504         41.7504
  22139917.4564     250727.15249    177475.16047                  22139914.5434
        47.0004         34.2504
  22742189.9294    -269268.44549   -200996.91447                  22742186.2704
        45.0004         31.0004
  22453962.9584     331944.87949    236634.84047                  22453960.0504
        46.7504         29.2504
  20764491.0844      76077.25049     50698.35248                  20764486.3614
        52.0004         41.2504
 04  7  1 17 51 30.0000000  0  8G 3G 9G14G15G18G19G21G22
  21737966.9244     104028.40249     71732.92247                  21737964.6214
        50.0004         36.0004
  23402535.0034      -9273.03149    -11283.60946                  23402534.5064
        38.2504         25.5004
  20639500.3684    -287927.23449   -215169.38348                  20639497.5784
        50.5004         41.5004
  19972544.4594     -13699.20349    -14608.95348                  19972542.3894
        50.2504         42.0004
  22145167.0734     278313.68449    198971.13747                  22145164.2074
        46.7504         33.2504
  22736490.3684    -299219.80549   -224335.64547                  22736486.0094
        44.5004         30.5004
  22460980.1644     368818.10249    265367.19147                  22460976.7554
        46.7504         29.7504
  20766062.1674      84335.72349     57133.52048                  20766057.7044
        51.0004         41.0004
 04  7  1 17 51 45.0000000  0  8G 3G 9G14G15G18G19G21G22
  21739998.7894     114706.08249     80053.17247                  21739996.6864
        48.7504         35.7504
  23402423.8454      -9856.16049    -11738.00846                  23402423.7434
        40.5004         24.5004
  20634056.0234    -316537.34849   -237462.96548                  20634053.2094
        51.0004         41.5004
  19972308.9114     -14937.77749    -15574.09048                  19972306.9004
        50.5004         41.5004
  22150411.6124     305873.28549    220446.13347                  22150408.7984
        47.5004         34.0004
  22730804.8264    -329098.82849   -247617.99647                  22730800.2164
        44.5004         30.0004
  22468000.6684     405713.29349    294116.66847                  22467997.3264
        46.7504         31.0004
  20767632.9514      92590.50049     63565.81648                  20767628.5464
        50.7504         41.2504
 04  7  1 17 52  0.0000000  0  8G 3G 9G14G15G18G19G21G22
  21742045.3614     125462.11749     88434.50047                  21742043.2974
        49.5004         35.5004
  23402331.9574     -10341.68749    -12116.35246                  23402330.8674
        41.0004         25.5004
  20628625.9144    -345071.80149   -259697.60548                  20628623.4134
        50.0004         41.5004
  19972084.5704     -16118.59449    -16494.20348                  19972082.2634
        50.5004         42.0004
  22155650.9664     333406.28949    241900.41447                  22155648.1204
        47.7504         34.0004
  22725132.6664    -358904.75449   -270843.38747                  22725128.9834
        42.0004         29.5004
  22475026.1234     442630.80149    322883.51647                  22475023.4014
        46.5004         31.0004
  20769203.6224     100841.84449     69995.42248                  20769198.7774
        51.5004         41.7504
 04  7  1 17 52 15.0000000  0  8G 3G 9G14G15G18G19G21G22
  21744107.3024     136298.93449     96878.75847                  21744105.4184
        49.2504         35.2504
  23402258.8974     -10727.14849    -12416.66846                  23402257.2264
        41.5004         25.5004
  20623211.1754    -373527.92649   -281871.21148                  20623207.9474
        50.5004         41.5004
  19971871.3454     -17238.90249    -17367.18448                  19971868.8714
        51.5004         42.2504
  22160885.7964     360915.31649    263336.00447                  22160882.7344
        47.7504         33.5004
  22719475.6724    -388634.85549   -294009.69947                  22719471.5624
        43.5004         30.0004
  22482055.7034     479573.19949    351669.75847                  22482052.9354
        46.0004         30.2504
  20770773.3314     109092.25449     76424.31348                  20770768.9144
        51.5004         41.5004
 04  7  1 17 52 30.0000000  0  8G 3G 9G14G15G18G19G21G22
  21746185.4004     147218.78549    105387.72347                  21746183.4254
        49.0004         35.0004
  23402204.9174     -11009.86749    -12636.96147                  23402204.2034
        42.5004         26.7504
  20617811.5274    -401903.18749   -303981.79748                  20617808.5474
        50.2504         41.0004
  19971670.4154     -18296.23049    -18191.07448                  19971667.8554
        51.5004         42.2504
  22166116.4464     388402.78949    284754.78947                  22166114.0024
        47.5004         34.0004
  22713832.4284    -418286.63349   -317114.98847                  22713828.6674
        44.0004         30.5004
  22489090.9164     516542.72749    380477.13347                  22489088.2464
        46.5004         30.7504
  20772343.6704     117344.15249     82854.36348                  20772338.9754
        51.5004         41.5004
 04  7  1 17 52 45.0000000  0  8G 3G 9G14G15G18G19G21G22
  21748279.9894     158226.23049    113964.93847                  21748278.2214
        50.0004         35.7504
  23402172.1594     -11185.12549    -12773.52746                  23402170.2764
        42.0004         25.5004
  20612428.1134    -430192.71149   -326025.57448                  20612425.1934
        50.2504         41.5004
  19971481.9304     -19285.71949    -18962.11748                  19971479.6324
        51.7504         42.2504
  22171343.9344     415873.20749    306160.29747                  22171341.0054
        48.2504         34.2504
  22708206.1134    -447854.97749   -340155.25047                  22708201.9314
        44.5004         29.7504
  22496132.5794     553543.86349    409309.16047                  22496128.9964
        46.2504         29.0004
  20773914.9944     125602.15649     89289.16048                  20773910.2454
        51.5004         40.7504
 04  7  1 17 53  0.0000000  0  8G 3G 9G14G15G18G19G21G22
  21750391.3244     169322.00049    122610.98047                  21750389.7034
        49.0004         36.0004
  23402158.3514     -11251.95749    -12825.62547                  23402157.9244
        41.0004         25.7504
  20607061.1694    -458395.35949   -348001.66048                  20607058.1734
        51.5004         41.7504
  19971306.7354     -20206.28549    -19679.44548                  19971304.3124
        51.5004         42.5004
  22176568.2254     443327.47349    327553.21147                  22176565.1124
        48.0004         34.0004
  22702595.8504    -477338.63349   -363129.52747                  22702591.4134
        44.0004         29.5004
  22503179.3904     590577.54749    438166.56347                  22503176.1084
        45.2504         30.2504
  20775487.7154     133867.00049     95729.29348                  20775483.2394
        51.2504         40.5004
 04  7  1 17 53 15.0000000  0  8G 3G 9G14G15G18G19G21G22
  21752519.0204     180502.42249    131322.98047                  21752517.2924
        48.5004         35.2504
  23402165.8834     -11213.76249    -12795.83646                  23402164.5674
        38.2504         25.5004
  20601710.5454    -486514.59049   -369912.73448                  20601707.8134
        51.0004         41.7504
  19971144.1604     -21061.24249    -20345.65248                  19971141.7224
        50.7504         42.5004
  22181788.7134     470762.01249    348930.77047                  22181785.7964
        47.0004         33.0004
  22697000.4234    -506741.02749   -386040.46947                  22696995.8424
        44.2504         29.7504
  22510232.3374     627640.37949    467046.64147                  22510229.3654
        46.5004         30.0004
  20777061.2024     142135.19549    102172.04348                  20777056.6134
        49.7504         40.7504
 04  7  1 17 53 30.0000000  0  8G 3G 9G14G15G18G19G21G22
  21754663.4954     191770.10949    140102.98847                  21754661.4704
        49.5004         35.2504
  23402194.2434     -11067.58249    -12681.94546                  23402192.7604
        40.2504         24.2504
  20596376.0254    -514547.38349   -391756.46548                  20596373.3474
        51.0004         41.7504
  19970994.3794     -21847.60549    -20958.41048                  19970991.9424
        51.5004         42.5004
  22187006.3214     498179.58649    370295.08647                  22187003.3444
        47.5004         33.5004
  22691421.3914    -536059.07049   -408885.69547                  22691416.9614
        44.2504         29.0004
  22517291.1384     664734.89849    495951.42647                  22517288.6304
        45.0004         30.0004
  20778635.7044     150409.43449    108619.49248                  20778630.9974
        51.2504         40.7504
 04  7  1 17 53 45.0000000  0  8G 3G 9G14G15G18G19G21G22
  21756824.8994     203130.53549    148955.27747                  21756823.2614
        47.5004         35.0004
  23402242.4454     -10807.77049    -12479.48446                  23402242.2464
        41.7504         24.5004
  20591058.6554    -542488.00049   -413528.35548                  20591056.1854
        51.2504         41.2504
  19970859.1614     -22559.65249    -21513.25448                  19970856.5064
        51.5004         42.5004
  22192221.8034     525585.84449    391650.60247                  22192218.7144
        46.5004         33.2504
  22685859.5634    -565287.05949   -431660.74647                  22685855.1654
        44.0004         29.7504
  22524356.6214     701866.62949    524885.22347                  22524354.4464
        46.0004         30.0004
  20780212.4604     158695.24249    115075.96548                  20780207.7264
        51.5004         41.0004
 04  7  1 17 54  0.0000000  0  8G 3G 9G14G15G18G19G21G22
  21759004.4074     214582.78949    157879.10247                  21759002.4484
        47.0004         35.0004
  23402314.0284     -10435.13749    -12189.13746                  23402313.5264
        40.5004         24.0004
  20585759.2024    -570337.23849   -435229.06248                  20585756.6764
        51.0004         41.5004
  19970737.4024     -23198.03949    -22010.71148                  19970735.0944
        51.0004         42.5004
  22197434.2774     552979.83249    412996.55547                  22197431.4724
        45.2504         32.7504
  22680315.2244    -594425.37949   -454365.93447                  22680310.6604
        44.5004         29.5004
  22531429.6134     739034.72749    553847.33647                  22531427.8494
        44.2504         30.0004
  20781791.0434     166991.67249    121540.71148                  20781786.4224
        51.5004         40.7504
 04  7  1 17 54 15.0000000  0  8G 3G 9G14G15G18G19G21G22
  21761201.1814     226123.91449    166872.16847                  21761198.6014
        48.0004         36.0004
  23402406.7324      -9952.27349    -11812.88746                  23402404.8824
        40.2504         25.0004
  20580476.8644    -598097.59849   -456860.50448                  20580473.7394
        51.2504         41.5004
  19970629.2554     -23765.37949    -22452.80548                  19970626.9504
        51.0004         42.0004
  22202644.5884     580358.67649    434330.69947                  22202641.6064
        46.0004         33.5004
  22674786.1794    -623476.67249   -477003.29347                  22674782.0264
        44.7504         29.5004
  22538508.8224     776236.39149    582835.60247                  22538506.3484
        43.7504         28.5004
  20783371.2554     175295.98849    128011.60948                  20783366.5234
        51.0004         40.5004
 04  7  1 17 54 30.0000000  0  8G 3G 9G14G15G18G19G21G22
  21763414.0444     237755.08649    175935.40247                  21763411.6034
        48.0004         35.0004
  23402518.4384      -9357.75049    -11349.61346                  23402518.1654
        41.0004         23.0004
  20575211.3734    -625767.63349   -478421.56648                  20575208.3434
        50.7504         41.7504
  19970535.3604     -24260.11749    -22838.32448                  19970532.9184
        51.2504         42.0004
  22207851.8054     607723.84049    455654.19147                  22207848.8624
        46.0004         33.0004
  22669274.4924    -652439.19149   -499571.47747                  22669270.5254
        45.5004         30.2504
  22545595.0444     813472.94949    611851.05147                  22545592.8994
        45.0004         29.2504
  20784953.4274     183609.69949    134489.81348                  20784948.6274
        51.2504         40.7504
 04  7  1 17 54 45.0000000  0  8G 3G 9G14G15G18G19G21G22
  21765645.5254     249482.63749    185073.74647                  21765643.5124
        47.5004         36.2504
  23402653.6844      -8645.06649    -10794.28146                  23402654.0894
        40.2504         23.5004
  20569964.3974    -653340.58649   -499906.97748                  20569961.2834
        51.2504         41.2504
  19970456.0714     -24675.60249    -23162.07448                  19970453.7574
        51.2504         42.5004
  22213057.9254     635081.70349    476971.99247                  22213055.3514
        44.5004         32.5004
  22663781.7514    -681306.25849   -522065.27747                  22663777.5434
        45.2504         30.0004
  22552688.3604     850750.65649    640898.60247                  22552686.5654
        45.2504         29.0004
  20786538.4134     191938.93849    140980.12548                  20786533.8684
        51.2504         41.2504
 04  7  1 17 55  0.0000000  0  8G 3G 9G14G15G18G19G21G22
  21767895.7144     261305.10249    194286.05147                  21767894.2334
        47.7504         36.0004
  23402812.1424      -7815.37549    -10147.74246                  23402812.1534
        40.7504         23.2504
  20564735.8364    -680817.69549   -521317.70748                  20564732.7644
        50.7504         41.2504
  19970392.1934     -25013.00849    -23424.99648                  19970389.9044
        52.0004         43.0004
  22218262.4724     662431.03549    498283.14147                  22218259.4464
        45.0004         33.0004
  22658306.5034    -710078.99249   -544485.58647                  22658302.5564
        46.0004         30.7504
  22559790.6064     888068.38749    669977.32447                  22559787.6014
        45.2504         30.5004
  20788125.9614     200282.40649    147481.52348                  20788121.6794
        50.7504         41.0004
 04  7  1 17 55 15.0000000  0  8G 3G 9G14G15G18G19G21G22
  21770163.2254     273220.96549    203571.12547                  21770161.6534
        46.7504         35.7504
  23402992.0614      -6869.91849     -9411.04746                  23402992.3434
        38.5004         24.5004
  20559525.2234    -708200.20749   -542654.71548                  20559521.8914
        50.5004         41.5004
  19970342.2704     -25273.56249    -23628.02748                  19970340.4304
        51.5004         42.5004
  22223464.7414     689770.37949    519586.52047                  22223462.2044
        44.5004         32.7504
  22652849.0934    -738758.38749   -566833.16447                  22652845.0904
        45.2504         30.2504
  22566898.8304     925424.69549    699086.10247                  22566896.8274
        45.5004         30.2504
  20789716.4154     208638.75849    153992.96948                  20789712.1974
        51.2504         41.5004
 04  7  1 17 55 30.0000000  0  8G 3G 9G14G15G18G19G21G22
  21772449.0124     285234.88349    212932.60547                  21772448.1194
        48.5004         36.0004
  23403196.0554      -5803.78949     -8580.31246                  23403194.6824
        41.0004         25.5004
  20554333.1974    -735482.94549   -563913.99248                  20554330.2264
        51.0004         41.0004
  19970308.5954     -25452.22749    -23767.25448                  19970306.1034
        51.0004         42.0004
  22228666.7784     717104.55949    540885.87547                  22228663.3054
        46.0004         32.0004
  22647410.1194    -767339.44549   -589104.10247                  22647405.8044
        45.5004         31.2504
  22574016.0144     962824.24249    728228.57047                  22574013.2814
        45.5004         30.5004
  20791309.6034     217012.81649    160518.19948                  20791305.6404
        51.2504         41.0004
 04  7  1 17 55 45.0000000  0  8G 3G 9G14G15G18G19G21G22
  21774753.9664     297345.71149    222369.60247                  21774752.2494
        48.5004         36.0004
  23403421.3084      -4617.93749     -7656.26646                  23403420.0334
        42.0004         24.2504
  20549160.4084    -762666.91049   -585096.29348                  20549157.6794
        50.7504         41.2504
  19970289.7954     -25549.87949    -23843.34448                  19970287.5114
        51.7504         42.5004
  22233866.5444     744432.37949    562180.25447                  22233863.9114
        47.0004         32.7504
  22641989.5964    -795822.97349   -611299.06247                  22641985.4534
        45.0004         31.5004
  22581140.6584    1000265.97749    757403.91047                  22581138.5264
        44.2504         29.7504
  20792906.2944     225403.42649    167056.33248                  20792902.0474
        50.5004         40.7504
 04  7  1 17 56  0.0000000  0  8G 3G 9G14G15G18G19G21G22
  21777077.2404     309553.77349    231882.35947                  21777075.2204
        49.0004         36.0004
  23403669.4004      -3311.92249     -6638.58246                  23403667.9634
        42.7504         23.0004
  20544006.3134    -789751.50849   -606201.17248                  20544003.1904
        50.0004         41.2504
  19970286.6074     -25565.94149    -23855.86748                  19970284.8324
        52.0004         42.0004
  22239066.0364     771754.33249    583470.08247                  22239062.5424
        47.7504         32.5004
  22636588.4984    -824208.30549   -633417.48847                  22636583.9174
        43.7504         31.5004
  22588273.4934    1037750.27349    786612.42247                  22588270.7474
        43.0004         28.7504
  20794506.6034     233810.86349    173607.58248                  20794501.7074
        50.5004         40.7504
 04  7  1 17 56 15.0000000  0  8G 3G 9G14G15G18G19G21G22
  21779419.0474     321861.16449    241472.52047                  21779416.7794
        49.0004         36.0004
  23403941.2174      -1883.22749     -5525.33246                  23403940.1314
        41.2504         24.7504
  20538871.7084    -816734.25849   -627226.68048                  20538868.4624
        50.5004         41.0004
  19970299.6044     -25497.91449    -23802.86748                  19970297.5864
        51.5004         42.2504
  22244264.6194     799072.75449    604757.15247                  22244261.5384
        48.0004         32.5004
  22631205.8124    -852492.67649   -655457.25447                  22631202.2084
        44.2504         31.0004
  22595415.2834    1075279.28949    815855.74647                  22595412.1744
        43.2504         28.0004
  20796110.2594     242237.52349    180173.80148                  20796105.2164
        50.7504         40.5004
 04  7  1 17 56 30.0000000  0  8G 3G 9G14G15G18G19G21G22
  21781779.4084     334266.15249    251138.74247                  21781777.3924
        48.5004         36.0004
  23404236.3074       -333.35949     -4317.66046                  23404235.0594
        41.0004         24.2504
  20533755.9384    -843616.48049   -648173.85548                  20533752.8904
        51.5004         41.0004
  19970328.2194     -25347.13749    -23685.37548                  19970325.9874
        52.2504         42.0004
  22249462.2294     826386.12149    626040.27047                  22249458.7894
        47.7504         32.7504
  22625842.8424    -880677.52749   -677419.47747                  22625838.7194
        45.5004         31.2504
  22602565.0654    1112851.49249    845132.77047                  22602562.0384
        45.0004         29.7504
  20797717.0784     250681.74649    186753.71148                  20797712.0094
        51.7504         41.2504
 04  7  1 17 56 45.0000000  0  8G 3G 9G14G15G18G19G21G22
  21784159.2644     346772.19149    260883.69547                  21784157.0634
        48.5004         35.7504
  23404555.2784       1341.25849     -3012.77346                  23404554.1514
        41.0004         24.0004
  20528660.3044    -870394.63749   -669039.94948                  20528657.3754
        51.2504         41.5004
  19970373.3894     -25109.92249    -23500.53948                  19970371.3894
        51.5004         42.5004
  22254659.4524     853697.94549    647322.19947                  22254656.4084
        48.0004         32.2504
  22620498.5234    -908759.11749   -699301.23847                  22620494.3954
        43.7504         32.5004
  22609723.9354    1150470.47349    874446.21947                  22609721.3024
        46.2504         29.0004
  20799327.9344     259147.04749    193350.03948                  20799323.2194
        51.5004         41.2504
 04  7  1 17 57  0.0000000  0  8G 3G 9G14G15G18G19G21G22
  21786557.8234     359375.54349    270704.48847                  21786555.7254
        48.5004         36.2504
  23404896.5654       3137.10949     -1613.39846                  23404895.4844
        41.5004         22.7504
  20523583.8454    -897072.23049   -689827.67648                  20523580.9894
        51.0004         41.2504
  19970434.3714     -24789.71149    -23251.03148                  19970432.0244
        52.0004         42.0004
  22259855.6814     881004.55149    668600.06347                  22259852.4324
        46.5004         32.7504
  22615174.6154    -936740.78149   -721105.13347                  22615169.6714
        45.0004         31.5004
  22616890.7454    1188132.30149    903793.06647                  22616888.0084
        44.0004         29.0004
  20800941.9694     267629.78949    199959.96948                  20800937.6444
        51.0004         41.0004
 04  7  1 17 57 15.0000000  0  8G 3G 9G14G15G18G19G21G22
  21788974.7494     372076.85949    280601.60947                  21788973.0374
        48.0004         36.5004
  23405261.1354       5055.18049      -118.81246                  23405260.9644
        41.2504         24.0004
  20518526.4484    -923648.15649   -710536.18448                  20518523.5094
        51.0004         41.0004
  19970511.5354     -24385.50049    -22936.07048                  19970509.3354
        51.2504         42.0004
  22265051.1424     908306.68849    689874.44947                  22265047.5734
        47.2504         31.7504
  22609868.6044    -964621.42649   -742830.29747                  22609865.0764
        45.5004         32.0004
  22624065.9044    1225837.93049    933174.02747                  22624063.2784
        45.0004         29.0004
  20802559.5494     276130.78549    206584.12548                  20802555.1584
        50.5004         40.7504
 04  7  1 17 57 30.0000000  0  8G 3G 9G14G15G18G19G21G22
  21791410.4064     384876.71549    290575.52047                  21791408.8994
        47.2504         36.2504
  23405649.9954       7096.30949      1471.69146                  23405648.9754
        41.2504         23.7504
  20513488.8434    -950121.54349   -731164.78148                  20513485.8104
        48.2504         40.5004
  19970604.4504     -23896.35949    -22554.91848                  19970601.9724
        49.0004         42.0004
  22270245.9844     935605.04749    711145.87947                  22270242.4324
        45.7504         31.5004
  22604582.4094    -992400.05949   -764475.97347                  22604578.3944
        44.5004         32.0004
  22631249.1174    1263588.00449    962589.64147                  22631246.7094
        44.5004         28.2504
  20804180.9764     284650.71949    213223.02348                  20804176.4784
        48.7504         40.5004
 04  7  1 17 57 45.0000000  0  8G 3G 9G14G15G18G19G21G22
  21793865.8184     397778.58649    300628.91447                  21793864.3504
        48.0004         36.0004
  23406062.5564       9264.05149      3160.86346                  23406060.9794
        42.7504         24.2504
  20508471.3234    -976488.70349   -751710.61748                  20508468.1914
        51.0004         41.2504
  19970714.5524     -23318.56649    -22104.69148                  19970711.7644
        51.2504         42.5004
  22275440.1874     962903.36349    732417.28947                  22275436.7054
        45.7504         32.5004
  22599316.7954   -1020072.83249   -786039.15647                  22599312.3004
        46.0004         32.0004
  22638442.2364    1301386.17249    992042.72747                  22638438.6084
        44.0004         28.0004
  20805806.3654     293193.06649    219879.38748                  20805802.0094
        50.7504         41.2504
 04  7  1 17 58  0.0000000  0  8G 3G 9G14G15G18G19G21G22
  21796340.6164     410782.45749    310761.77047                  21796338.8014
        47.5004         36.0004
  23406499.1854      11558.81349      4948.95346                  23406498.2704
        41.2504         24.2504
  20503473.9694   -1002749.13749   -772173.28548                  20503471.0924
        51.0004         41.2504
  19970841.4064     -22651.66849    -21585.03948                  19970838.8014
        51.0004         43.0004
  22280634.9094     990201.89849    753688.85947                  22280631.9534
        45.7504         31.7504
  22594070.5024   -1047639.32449   -807519.53947                  22594066.5284
        45.7504         31.5004
  22645644.5294    1339232.50049   1021533.33247                  22645641.2924
        42.7504         28.7504
  20807436.3774     301758.07049    226553.41448                  20807431.6494
        50.2504         41.0004
 04  7  1 17 58 15.0000000  0  8G 3G 9G14G15G18G19G21G22
  21798834.4844     423889.99649    320975.43847                  21798832.6674
        48.2504         35.7504
  23406960.9724      13982.36349      6837.46146                  23406959.6734
        42.0004         25.5004
  20498497.7224   -1028900.93049   -792551.30548                  20498494.5774
        50.7504         41.2504
  19970985.7314     -21893.81649    -20994.50848                  19970983.1214
        51.2504         42.5004
  22285830.6074    1017502.16049    774961.77747                  22285827.0144
        47.0004         32.7504
  22588845.4314   -1075097.48449   -828915.49647                  22588841.4884
        45.0004         31.5004
  22652855.4694    1377128.48449   1051062.64547                  22652852.6184
        43.7504         29.0004
  20809071.0474     310347.33249    233246.34048                  20809065.8604
        50.7504         41.2504
 04  7  1 17 58 30.0000000  0  8G 3G 9G14G15G18G19G21G22
  21801347.5794     437098.14549    331267.49647                  21801346.2664
        48.0004         36.0004
  23407445.2374      16531.84049      8824.06646                  23407445.0204
        42.5004         23.7504
  20493541.0644   -1054946.99649   -812846.93048                  20493538.2104
        51.0004         42.0004
  19971146.5454     -21047.82449    -20335.29348                  19971144.2604
        51.2504         42.5004
  22291024.9344    1044801.22749    796233.76647                  22291022.0004
        46.5004         32.2504
  22583641.0194   -1102450.01249   -850229.15247                  22583636.7234
        46.2504         32.2504
  22660075.0674    1415071.31649   1080628.44947                  22660072.7874
        44.0004         27.7504
  20810709.7584     318957.99249    239955.94148                  20810704.8624
        52.0004         41.0004
 04  7  1 17 58 45.0000000  0  8G 3G 9G14G15G18G19G21G22
  21803880.9364     450408.06349    341638.84847                  21803878.6104
        47.5004         35.7504
  23407954.9884      19208.66849     10909.88346                  23407953.9954
        43.0004         25.0004
  20488605.1854   -1080885.92649   -833059.07048                  20488602.0594
        51.0004         41.0004
  19971324.9594     -20112.13349    -19606.18448                  19971322.4074
        52.0004         42.7504
  22296220.1864    1072100.56649    817505.95747                  22296217.2004
        45.5004         32.7504
  22578456.4664   -1129695.30549   -871459.24247                  22578452.5014
        46.0004         32.5004
  22667305.3484    1453062.34849   1110231.80547                  22667302.5264
        44.7504         28.0004
  20812352.4104     327591.35549    246683.23448                  20812347.7594
        51.5004         41.2504
 04  7  1 17 59  0.0000000  0  8G 3G 9G14G15G18G19G21G22
  21806433.1084     463819.02049    352088.93047                  21806430.9264
        49.5004         36.2504
  23408489.4074      22012.32049     13094.52746                  23408487.7624
        42.2504         24.5004
  20483689.6854   -1106717.98849   -853187.94148                  20483686.3954
        50.2504         41.0004
  19971519.8104     -19087.11749    -18807.47348                  19971517.3994
        51.5004         42.5004
  22301414.9804    1099399.47349    838777.82847                  22301411.8204
        48.0004         31.7504
  22573291.5554   -1156833.75049   -892606.07847                  22573288.2544
        43.7504         33.0004
  22674543.1604    1491100.78149   1139872.11747                  22674541.2704
        43.0004         28.5004
  20813999.4404     336246.80149    253427.73048                  20813994.9834
        50.7504         41.2504
 04  7  1 17 59 15.0000000  0  8G 3G 9G14G15G18G19G21G22
  21809004.5824     477333.08249    362619.35247                  21809002.4314
        49.5004         35.7504
  23409047.1164      24945.09849     15379.82047                  23409046.1284
        42.0004         26.7504
  20478794.6884   -1132440.75849   -873231.65248                  20478791.5934
        50.5004         41.2504
  19971732.4664     -17970.35249    -17937.27048                  19971729.8924
        51.7504         42.7504
  22306610.0884    1126700.32049    860051.19547                  22306607.0394
        47.7504         32.2504
  22568148.4984   -1183862.84449   -913667.71147                  22568144.7144
        45.5004         32.7504
  22681791.6164    1529188.94149   1169551.13747                  22681789.2524
        44.5004         28.7504
  20815651.1754     344926.52349    260191.14548                  20815646.0594
        51.2504         40.5004
 04  7  1 17 59 30.0000000  0  8G 3G 9G14G15G18G19G21G22
  21811596.1334     490952.09449    373231.57447                  21811593.6334
        49.5004         36.0004
  23409630.6124      28009.27049     17767.49246                  23409629.4424
        41.5004         25.2504
  20473920.7434   -1158052.09849   -893188.53548                  20473917.6184
        50.7504         41.0004
  19971962.3914     -16759.62149    -16993.84848                  19971960.4174
        51.5004         42.2504
  22311805.7314    1154005.07049    881327.62147                  22311803.3344
        47.5004         32.5004
  22563026.0584   -1210780.17649   -934642.25447                  22563022.3744
        46.2504         32.5004
  22689048.9434    1567328.69149   1199270.40647                  22689046.7814
        43.2504         27.5004
  20817307.8314     353632.54349    266975.05548                  20817303.2874
        50.5004         41.7504
 04  7  1 17 59 45.0000000  0  8G 3G 9G14G15G18G19G21G22
  21814206.9424     504672.35549    383922.66847                  21814204.9734
        49.2504         36.0004
  23410237.0064      31201.17649     20254.69947                  23410236.5624
        42.2504         26.0004
  20469067.7224   -1183555.43049   -913061.25048                  20469064.6834
        50.7504         41.2504
  19972210.1744     -15458.37149    -15979.89548                  19972207.7454
        51.7504         42.5004
  22317002.2424    1181310.27349    902604.39147                  22316998.7834
        47.7504         32.0004
  22557924.1544   -1237589.18049   -955532.38347                  22557920.9124
        46.7504         33.7504
  22696316.1234    1605516.39849   1229027.01647                  22696313.9574
        43.2504         27.0004
  20818969.0254     362361.26649    273776.65248                  20818964.2174
        50.7504         41.2504
 04  7  1 18  0  0.0000000  0  8G 3G 9G14G15G18G19G21G22
  21816838.0494     518497.53949    394695.53147                  21816835.8394
        50.0004         36.2504
  23410870.3384      34524.88349     22844.57846                  23410869.3934
        42.5004         25.5004
  20464235.9354   -1208946.63349   -932846.60548                  20464232.8414
        50.2504         41.0004
  19972475.6654     -14062.49249    -14892.20348                  19972473.3244
        52.0004         42.5004
  22322198.9394    1208619.79349    923884.51647                  22322196.2034
        48.0004         31.5004
  22552844.4974   -1264285.69149   -976334.85947                  22552840.1044
        47.0004         33.2504
  22703593.3984    1643756.07049   1258824.11747                  22703590.6024
        43.0004         28.0004
  20820635.0854     371116.57849    280598.96148                  20820630.4684
        50.7504         41.0004
 04  7  1 18  0 15.0000000  0  8G 3G 9G14G15G18G19G21G22
  21819488.4434     532426.37149    405549.14547                  21819486.7324
        49.0004         36.0004
  23411527.5424      37979.10949     25536.16847                  23411526.5404
        42.5004         26.5004
  20459425.2124   -1234226.96149   -952545.54748                  20459421.8224
        50.7504         41.2504
  19972759.2904     -12573.20749    -13731.73448                  19972756.8114
        51.5004         42.5004
  22327396.6194    1235932.31649    945166.98447                  22327393.5424
        47.0004         32.0004
  22547785.4544   -1290870.67249   -997050.41447                  22547780.9554
        46.2504         34.0004
  22710879.3984    1682046.30949   1288660.63747                  22710876.9284
        43.0004         27.2504
  20822305.6914     379897.22349    287441.02348                  20822301.1034
        50.0004         41.0004
 04  7  1 18  0 30.0000000  0  8G 3G 9G14G15G18G19G21G22
  21822159.3114     546460.73049    416484.99247                  21822157.2004
        49.7504         36.0004
  23412210.3664      41565.96149     28331.13747                  23412208.8294
        42.7504         26.5004
  20454636.3664   -1259394.17249   -972156.35948                  20454633.0184
        50.5004         41.2504
  19973060.7884     -10988.21149    -12496.67648                  19973058.2834
        51.2504         42.0004
  22332595.2794    1263249.77749    966453.31647                  22332591.7044
        48.0004         32.5004
  22542748.3844   -1317341.87549  -1017677.32847                  22542743.4574
        47.5004         32.5004
  22718176.3924    1720389.12949   1318538.12147                  22718174.0664
        43.7504         28.5004
  20823981.7854     388705.17649    294304.35548                  20823977.1004
        50.5004         41.0004
 04  7  1 18  0 45.0000000  0  8G 3G 9G14G15G18G19G21G22
  21824848.9954     560598.17649    427501.18047                  21824847.8034
        49.5004         35.5004
  23412917.4354      45283.39149     31227.83246                  23412915.7284
        43.2504         25.5004
  20449868.1604   -1284450.25449   -991680.57048                  20449864.8934
        50.5004         41.0004
  19973380.3594      -9309.48449    -11188.58248                  19973377.7484
        51.5004         42.5004
  22337793.7764    1290570.12549    987741.87947                  22337790.9764
        47.5004         32.0004
  22537732.2384   -1343701.27049  -1038217.10247                  22537727.7894
        47.0004         33.0004
  22725482.4544    1758782.36349   1348454.89547                  22725480.6554
        44.7504         29.5004
  20825662.8234     397538.23849    301187.24648                  20825657.8694
        50.5004         41.2504
 04  7  1 18  1  0.0000000  0  8G 3G 9G14G15G18G19G21G22
  21827559.6474     574839.33249    438598.16847                  21827557.9154
        49.2504         35.0004
  23413649.4014      49132.22349     34226.90646                  23413648.5934
        42.5004         25.0004
  20445121.4094   -1309394.46949  -1011117.61748                  20445118.4944
        50.7504         41.0004
  19973717.9824      -7536.09449     -9806.71948                  19973715.1014
        51.5004         42.2504
  22342992.9674    1317894.05949   1009033.23447                  22342990.5754
        48.0004         31.2504
  22532737.0064   -1369947.95749  -1058669.07447                  22532733.0324
        46.0004         33.0004
  22732798.4734    1797226.63749   1378411.44147                  22732795.7994
        43.0004         28.0004
  20827348.6684     406397.13749    308090.28148                  20827343.8114
        50.2504         40.7504
 04  7  1 18  1 15.0000000  0  8G 3G 9G14G15G18G19G21G22
  21830288.9884     589181.79749    449774.10547                  21830286.9604
        49.0004         35.5004
  23414406.3724      53110.24649     37326.67246                  23414406.1194
        41.7504         23.5004
  20440395.5964   -1334228.79749  -1030469.02748                  20440392.4524
        50.2504         41.5004
  19974073.1854      -5670.22749     -8352.80148                  19974070.5084
        51.0004         42.0004
  22348193.2284    1345219.30549   1030325.62547                  22348189.9344
        47.2504         31.5004
  22527764.3124   -1396083.75849  -1079034.62947                  22527759.5954
        46.5004         32.5004
  22740122.5464    1835719.49649   1408405.83647                  22740120.3264
        43.2504         27.2504
  20829038.7984     415279.48849    315011.59048                  20829033.9004
        50.0004         41.0004
 04  7  1 18  1 30.0000000  0  8G 3G 9G14G15G18G19G21G22
  21833037.9574     603628.21149    461031.04347                  21833036.0854
        49.5004         36.0004
  23415188.9744      57220.30549     40529.30146                  23415187.8544
        41.2504         25.2504
  20435691.2894   -1358950.32049  -1049732.54348                  20435688.1854
        49.5004         41.7504
  19974446.2784      -3708.93749     -6824.52748                  19974443.7214
        51.2504         42.2504
  22353393.4434    1372548.59049   1051621.17247                  22353390.4434
        48.2504         32.5004
  22522812.4654   -1422105.81249  -1099311.54347                  22522807.4744
        45.2504         33.0004
  22747458.0724    1874263.56649   1438440.13747                  22747454.8874
        44.0004         26.0004
  20830733.9324     424188.16449    321953.42248                  20830729.2294
        50.5004         41.2504
 04  7  1 18  1 45.0000000  0  8G 3G 9G14G15G18G19G21G22
  21835806.6024     618180.39549    472370.39547                  21835804.4614
        49.7504         35.7504
  23415996.3414      61464.56349     43836.50846                  23415994.5374
        42.5004         24.0004
  20431008.8964   -1383556.83649  -1068906.43748                  20431005.4184
        50.5004         41.2504
  19974837.9404      -1649.98449     -5220.14848                  19974835.4754
        51.2504         42.5004
  22358595.4284    1399884.11349   1072921.55947                  22358592.9924
        48.0004         32.5004
  22517882.1874   -1448011.71549  -1119497.94147                  22517878.5494
        45.5004         33.2504
  22754802.1064    1912860.98049   1468516.03547                  22754799.9544
        43.5004         28.0004
  20832434.7784     433125.16049    328917.30548                  20832430.1934
        51.0004         40.7504
 04  7  1 18  2  0.0000000  0  8G 3G 9G14G15G18G19G21G22
  21838596.3134     632838.41849    483792.21947                  21838594.0764
        49.5004         35.5004
  23416829.8014      65843.17649     47248.41046                  23416828.2424
        43.2504         24.7504
  20426348.0544   -1408048.09849  -1087990.52748                  20426345.0764
        50.7504         41.0004
  19975248.1934        506.92649     -3539.44148                  19975245.8214
        51.5004         42.2504
  22363798.1294    1427225.98049   1094226.89547                  22363795.6734
        47.7504         31.5004
  22512975.0244   -1473801.16049  -1139593.62147                  22512971.1044
        46.0004         33.0004
  22762157.2744    1951511.98449   1498633.65247                  22762155.4704
        42.5004         27.7504
  20834140.9604     442090.50049    335903.28148                  20834135.8514
        51.0004         40.5004
 04  7  1 18  2 15.0000000  0  8G 3G 9G14G15G18G19G21G22
  21841405.6464     647601.24249    495295.70747                  21841403.3954
        48.7504         35.0004
  23417689.1814      70355.50449     50764.52746                  23417687.1784
        42.2504         25.5004
  20421709.3174   -1432424.62549  -1106985.21948                  20421706.1554
        50.7504         41.2504
  19975677.3874       2761.32849     -1782.77048                  19975674.6444
        51.5004         42.2504
  22369002.4544    1454573.47349   1115536.61747                  22368999.2624
        46.5004         31.5004
  22508089.1604   -1499474.64149  -1159598.89547                  22508085.5184
        46.5004         33.0004
  22769522.3064    1990215.81649   1528792.44147                  22769520.5614
        41.5004         26.7504
  20835852.0174     451083.58249    342910.87148                  20835847.4804
        50.2504         41.0004
 04  7  1 18  2 30.0000000  0  8G 3G 9G14G15G18G19G21G22
  21844234.6914     662468.48049    506880.56647                  21844232.8294
        49.0004         34.7504
  23418572.5074      75001.25449     54384.58647                  23418570.6334
        42.5004         26.0004
  20417092.9494   -1456686.77349  -1125890.79348                  20417089.2054
        50.5004         42.0004
  19976125.0724       5112.96549        49.66848                  19976122.9194
        51.0004         42.5004
  22374207.4814    1481926.25849   1136850.45347                  22374204.7034
        47.5004         32.0004
  22503226.2214   -1525032.15649  -1179513.83647                  22503222.1144
        46.5004         33.7504
  22776897.1384    2028972.00849   1558992.00847                  22776896.4374
        43.0004         27.5004
  20837568.7184     460103.94949    349939.72748                  20837564.3884
        50.7504         40.7504
 04  7  1 18  2 45.0000000  0  8G 3G 9G14G15G18G19G21G22
  21847083.8304     677440.05949    518546.71947                  21847082.1094
        48.5004         35.5004
  23419481.1214      79780.51649     58108.70346                  23419481.0394
        40.7504         25.5004
  20412497.6784   -1480834.17649  -1144706.94548                  20412494.2704
        50.2504         41.2504
  19976590.8134       7562.14549      1958.12548                  19976588.3434
        51.5004         42.5004
  22379413.6454    1509284.54349   1158168.59047                  22379410.2234
        47.2504         31.7504
  22498384.3334   -1550473.51249  -1199338.27347                  22498380.4684
        45.2504         32.7504
  22784282.2674    2067780.56649   1589232.40647                  22784280.7314
        42.2504         26.5004
  20839290.3854     469151.73049    356989.94148                  20839285.8734
        50.7504         40.5004
 04  7  1 18  3  0.0000000  0  8G 3G 9G14G15G18G19G21G22
  21849952.9454     692518.91049    530296.46947                  21849951.3034
        48.7504         35.2504
  23420417.4364      84696.55949     61939.34846                  23420416.6474
        42.0004         24.7504
  20407924.8174   -1504863.63349  -1163431.18048                  20407921.7424
        51.0004         41.2504
  19977076.0324      10112.14849      3945.13348                  19977073.9564
        51.5004         42.0004
  22384620.9984    1536651.34849   1179493.35947                  22384618.7674
        47.2504         32.0004
  22493566.1894   -1575795.30149  -1219069.53147                  22493561.8904
        46.5004         33.2504
  22791678.2594    2106644.59449   1619516.02347                  22791676.0044
        44.5004         28.0004
  20841018.0454     478230.05549    364063.95748                  20841013.2454
        51.2504         41.0004
 04  7  1 18  3 15.0000000  0  8G 3G 9G14G15G18G19G21G22
  21852842.8974     707704.11349    542129.07047                  21852840.6464
        48.7504         35.5004
  23421378.2484      89748.67649     65876.07446                  23421377.4874
        38.5004         24.0004
  20403374.5644   -1528775.69949  -1182063.95348                  20403371.4804
        51.0004         42.0004
  19977580.8414      12762.48049      6010.32448                  19977578.0104
        51.2504         42.0004
  22389830.4774    1564025.85549   1200824.12947                  22389827.4814
        48.0004         32.0004
  22488770.5524   -1600997.94149  -1238707.94947                  22488766.3134
        46.5004         33.7504
  22799084.0364    2145563.16449   1649842.16447                  22799081.0434
        44.2504         27.5004
  20842750.9894     487338.12149    371161.14848                  20842746.2114
        51.0004         41.0004
 04  7  1 18  3 30.0000000  0  8G 3G 9G14G15G18G19G21G22
  21855752.7594     722995.07849    554044.10547                  21855750.4484
        49.2504         35.5004
  23422366.1094      94936.23849     69918.33246                  23422364.5544
        42.2504         24.5004
  20398846.5344   -1552570.80549  -1200605.58248                  20398843.2124
        50.2504         42.2504
  19978104.0374      15512.75449      8153.39148                  19978101.7584
        51.5004         42.0004
  22395041.0654    1591407.67249   1222160.59047                  22395037.9994
        47.0004         32.2504
  22483996.6594   -1626081.72349  -1258253.74647                  22483992.9454
        46.5004         34.0004
  22806500.1014    2184535.81649   1680210.43047                  22806497.6734
        43.2504         27.5004
  20844489.4924     496475.39849    378281.10248                  20844485.5304
        50.5004         40.7504
 04  7  1 18  3 45.0000000  0  8G 3G 9G14G15G18G19G21G22
  21858682.9794     738393.19149    566042.63347                  21858680.0054
        49.0004         35.7504
  23423379.7074     100261.09449     74067.55546                  23423378.0434
        43.2504         25.0004
  20394340.7994   -1576247.24649  -1219054.74648                  20394337.6734
        51.0004         41.5004
  19978646.6294      18364.69149     10375.67248                  19978644.1284
        51.2504         42.0004
  22400253.0724    1618798.33649   1243503.96547                  22400250.5224
        47.7504         32.5004
  22479247.1124   -1651044.91049  -1277705.59047                  22479242.4954
        47.2504         34.0004
  22813927.1234    2223564.01249   1710621.97747                  22813924.7234
        45.0004         27.7504
  20846234.6944     505643.39149    385424.99248                  20846230.0864
        50.7504         40.5004
 04  7  1 18  4  0.0000000  0  8G 3G 9G14G15G18G19G21G22
  21861633.3584     753898.24249    578124.48047                  21861631.2444
        49.0004         35.2504
  23424418.6284     105723.24649     78323.77046                  23424417.2754
        42.0004         23.5004
  20389858.1574   -1599804.84849  -1237411.31648                  20389854.9754
        50.5004         41.7504
  19979208.7134      21318.35949     12677.23048                  19979206.2184
        51.0004         42.0004
  22405467.4034    1646197.86749   1264854.21147                  22405464.4884
        47.2504         32.2504
  22474519.3924   -1675887.23849  -1297063.21947                  22474514.8214
        46.0004         33.7504
  22821364.6384    2262647.60549   1741076.66847                  22821362.6134
        43.7504         27.5004
  20847984.9134     514842.16449    392592.85948                  20847980.4814
        50.2504         40.5004
 04  7  1 18  4 15.0000000  0  8G 3G 9G14G15G18G19G21G22
  21864603.6324     769509.43449    590289.03947                  21864602.1724
        48.5004         35.0004
  23425484.1494     111322.20749     82686.61346                  23425482.6244
        41.7504         25.5004
  20385398.0264   -1623244.01249  -1255675.59048                  20385394.7114
        50.2504         42.0004
  19979789.9824      24373.37549     15057.76648                  19979787.1844
        51.5004         42.2504
  22410683.1084    1673605.72749   1286210.97347                  22410679.7434
        47.7504         32.2504
  22469814.7664   -1700609.02049  -1316326.94547                  22469810.5674
        46.7504         33.7504
  22828813.1034    2301786.09449   1771574.14147                  22828810.9644
        45.0004         28.5004
  20849741.3204     524071.05949    399784.20348                  20849736.3874
        51.0004         40.5004
 04  7  1 18  4 30.0000000  0  8G 3G 9G14G15G18G19G21G22
  21867594.9484     785229.21949    602538.19947                  21867593.4244
        49.2504         35.0004
  23426576.0644     117060.48849     87157.98047                  23426575.7824
        42.0004         26.0004
  20380960.3364   -1646562.22749  -1273845.62148                  20380957.5504
        50.2504         42.2504
  19980391.1034      27532.35949     17519.31348                  19980388.7984
        52.2504         42.2504
  22415900.9384    1701024.37149   1307576.13347                  22415897.1724
        49.0004         32.0004
  22465133.6914   -1725207.66049  -1335494.71947                  22465129.4204
        46.5004         33.5004
  22836272.0434    2340981.85549   1802116.23847                  22836269.8714
        45.0004         29.5004
  20851503.4894     533332.62949    407001.01248                  20851498.6864
        51.0004         40.5004
 04  7  1 18  4 45.0000000  0  8G 3G 9G14G15G18G19G21G22
  21870606.4544     801056.01249    614870.75447                  21870604.9614
        48.5004         34.7504
  23427694.4304     122936.72749     91736.87546                  23427693.3944
        41.7504         25.5004
  20376545.6214   -1669760.68449  -1291922.33248                  20376542.7494
        50.2504         41.7504
  19981011.8844      30794.16849     20060.97348                  19981009.6094
        51.5004         42.0004
  22421119.7794    1728452.38349   1328948.60247                  22421116.9674
        47.0004         32.5004
  22460476.2954   -1749684.19149  -1354567.34447                  22460471.5204
        45.2504         33.5004
  22843740.8244    2380233.52349   1832701.91447                  22843738.5514
        45.0004         29.0004
  20853272.0424     542625.44149    414242.16448                  20853267.5614
        50.7504         40.7504
 04  7  1 18  5  0.0000000  0  8G 3G 9G14G15G18G19G21G22
  21873639.3984     816990.84049    627287.49247                  21873637.3944
        49.0004         35.5004
  23428839.1084     128952.27349     96424.27047                  23428837.9494
        41.7504         26.0004
  20372154.5794   -1692837.92249  -1309904.58648                  20372151.4274
        50.2504         41.7504
  19981652.4144      34160.35949     22683.97748                  19981649.9824
        51.2504         42.2504
  22426341.1354    1755891.12149   1350329.42647                  22426338.6724
        47.5004         32.0004
  22455841.7124   -1774037.10949  -1373543.64147                  22455837.3274
        46.5004         33.2504
  22851220.6274    2419542.30549   1863332.10547                  22851217.8954
        43.0004         28.5004
  20855046.5924     551950.80149    421508.67248                  20855041.9654
        50.5004         41.2504
 04  7  1 18  5 15.0000000  0  8G 3G 9G14G15G18G19G21G22
  21876691.8564     833031.29349    639786.53147                  21876689.9214
        48.7504         35.0004
  23430010.1964     135104.81349    101218.46546                  23430009.5764
        40.7504         24.2504
  20367785.7494   -1715796.17649  -1327794.12948                  20367782.2664
        50.0004         41.5004
  19982312.1854      37628.67649     25386.55548                  19982309.8364
        51.0004         42.5004
  22431564.8364    1783338.52049   1371716.97347                  22431561.9164
        47.5004         32.0004
  22451230.5874   -1798268.52049  -1392425.23447                  22451226.4314
        45.5004         33.7504
  22858711.2994    2458905.74649   1894004.87547                  22858708.7474
        43.2504         27.0004
  20856826.7164     561306.33249    428798.69148                  20856822.4274
        50.7504         41.2504
 04  7  1 18  5 30.0000000  0  8G 3G 9G14G15G18G19G21G22
  21879764.5414     849177.28149    652367.80947                  21879762.7114
        49.0004         35.7504
  23431205.7394     141394.54749    106119.55547                  23431205.6484
        41.7504         25.7504
  20363439.6024   -1738635.05549  -1345590.64148                  20363436.3674
        50.5004         41.5004
  19982991.7424      41199.42249     28168.95748                  19982989.1004
        51.5004         42.5004
  22436789.2794    1810794.60549   1393111.31647                  22436786.3434
        47.5004         32.7504
  22446643.2244   -1822377.97349  -1411211.84447                  22446638.5724
        45.2504         32.5004
  22866212.3954    2498324.10949   1924720.43847                  22866210.1414
        42.2504         26.7504
  20858612.8654     570692.21949    436112.36348                  20858608.2444
        50.7504         41.0004
 04  7  1 18  5 45.0000000  0  8G 3G 9G14G15G18G19G21G22
  21882857.8374     865431.11349    665033.12147                  21882855.0244
        49.5004         34.5004
  23432429.9554     147824.03949    111129.55546                  23432428.6054
        41.2504         24.0004
  20359116.5224   -1761352.11749  -1363292.25048                  20359113.5324
        50.5004         41.7504
  19983691.1134      44875.24649     31033.23448                  19983688.5344
        51.7504         41.5004
  22442016.3324    1838261.83249   1414514.32847                  22442012.6304
        48.0004         31.5004
  22442078.2674   -1846362.93049  -1429901.41047                  22442074.4434
        45.7504         32.7504
  22873725.3904    2537799.71949   1955480.62547                  22873722.6004
        43.5004         27.5004
  20860405.1664     580110.93049    443451.61748                  20860400.6104
        50.7504         40.7504
 04  7  1 18  6  0.0000000  0  8G 3G 9G14G15G18G19G21G22
  21885971.2594     881793.74649    677783.22747                  21885968.7094
        49.5004         35.0004
  23433679.8244     154394.43049    116249.35946                  23433679.5154
        40.2504         24.7504
  20354816.9954   -1783946.06649  -1380897.91448                  20354813.9324
        50.7504         42.5004
  19984411.2734      48657.39149     33980.35548                  19984408.7074
        51.7504         42.0004
  22447245.4504    1865741.35249   1435926.93847                  22447242.1274
        47.5004         31.7504
  22437538.9754   -1870221.91849  -1448492.83247                  22437534.2374
        46.7504         33.0004
  22881248.1254    2577333.69549   1986286.25847                  22881245.7594
        43.0004         27.2504
  20862203.6964     589563.50849    450817.26248                  20862198.8334
        50.5004         40.7504
 04  7  1 18  6 15.0000000  0  8G 3G 9G14G15G18G19G21G22
  21889105.7364     898265.07449    690618.00847                  21889103.5734
        49.5004         35.5004
  23434957.5664     161105.93849    121479.08646                  23434957.0954
        40.0004         25.0004
  20350541.2234   -1806416.71949  -1398407.50848                  20350537.8694
        50.5004         42.5004
  19985151.1714      52546.04749     37010.46548                  19985148.4954
        51.5004         42.5004
  22452476.9334    1893233.09849   1457349.06647                  22452473.6104
        46.7504         31.5004
  22433022.5514   -1893954.71149  -1466985.90247                  22433018.0214
        45.0004         33.5004
  22888782.3334    2616925.96149   2017137.33647                  22888779.8254
        44.5004         28.2504
  20864009.4614     599050.08649    458209.39148                  20864004.4584
        51.0004         41.0004
 04  7  1 18  6 30.0000000  0  8G 3G 9G14G15G18G19G21G22
  21892259.9644     914842.28549    703535.30147                  21892258.0904
        48.7504         35.2504
  23436260.8964     167955.89149    126816.68446                  23436260.0434
        39.7504         23.0004
  20346288.3074   -1828766.64849  -1415823.02348                  20346284.9054
        51.0004         42.2504
  19985911.0084      56538.78149     40121.69148                  19985908.1704
        51.2504         42.0004
  22457710.5334    1920734.46549   1478778.67647                  22457707.5444
        47.2504         32.0004
  22428529.4274   -1917563.64149  -1485382.48047                  22428525.2644
        45.7504         34.0004
  22896327.0264    2656573.66849   2048031.62147                  22896324.8574
        44.5004         28.2504
  20865820.2934     608567.94949    465625.90648                  20865815.7824
        51.2504         40.7504
 04  7  1 18  6 45.0000000  0  8G 3G 9G14G15G18G19G21G22
  21895434.1474     931526.05149    716535.63347                  21895433.2344
        48.0004         35.5004
  23437591.6004     174944.95749    132262.69146                  23437589.6764
        41.7504         22.7504
  20342058.2984   -1850994.79349  -1433143.65248                  20342054.7814
        50.2504         42.2504
  19986690.4994      60636.59449     43314.78948                  19986687.8294
        51.5004         42.0004
  22462945.3404    1948246.42249   1500216.55947                  22462942.8974
        47.2504         32.2504
  22424060.6194   -1941047.75049  -1503681.78547                  22424056.7504
        46.0004         33.2504
  22903882.5474    2696277.67649   2078969.77347                  22903879.1214
        43.5004         27.0004
  20867637.7664     618117.96549    473067.47348                  20867633.3924
        50.5004         41.0004
 04  7  1 18  7  0.0000000  0  8G 3G 9G14G15G18G19G21G22
  21898629.6534     948316.29349    729618.92647                  21898628.0104
        48.7504         34.7504
  23438947.5354     182073.42249    137817.34446                  23438946.8344
        40.0004         23.0004
  20337851.5894   -1873100.98849  -1450369.24648                  20337848.2774
        50.7504         41.5004
  19987490.2044      64839.71949     46589.95348                  19987487.8574
        51.7504         42.5004
  22468182.7304    1975769.00849   1521662.69547                  22468180.7384
        46.7504         31.7504
  22419615.8534   -1964406.76649  -1521883.61747                  22419611.2814
        46.5004         33.0004
  22911448.3694    2736038.03549   2109951.82447                  22911445.6794
        43.5004         26.7504
  20869461.0624     627700.13749    480534.10548                  20869456.6394
        50.0004         40.5004
 04  7  1 18  7 15.0000000  0  8G 3G 9G14G15G18G19G21G22
  21901844.6944     965211.59849    742784.09047                  21901843.5504
        48.7504         34.5004
  23440330.1704     189340.07049    143479.63346                  23440329.2194
        39.5004         23.5004
  20333667.7924   -1895086.36749  -1467500.69948                  20333664.4514
        50.5004         42.0004
  19988310.1534      69147.09049     49946.34048                  19988307.9794
        51.7504         42.2504
  22473421.7894    2003301.05949   1543116.24247                  22473418.8114
        47.0004         32.2504
  22415194.1454   -1987641.63749  -1539988.70347                  22415189.9184
        46.7504         33.2504
  22919024.6134    2775853.50849   2140976.84446                  22919023.0834
        42.5004         25.5004
  20871290.5384     637313.28149    488024.85948                  20871285.9154
        51.0004         40.2504
 04  7  1 18  7 30.0000000  0  8G 3G 9G14G15G18G19G21G22
  21905080.6324     982214.98449    756033.47747                  21905079.1564
        48.7504         34.7504
  23441739.4474     196748.14149    149252.15246                  23441739.1224
        38.0004         24.7504
  20329507.7364   -1916947.53549  -1484535.36348                  20329504.4504
        50.7504         42.0004
  19989150.2454      73561.93849     53386.47348                  19989147.8054
        51.7504         42.0004
  22478663.6594    2030845.88349   1564579.71947                  22478661.0554
        47.0004         32.0004
  22410797.1674   -2010748.91049  -1557994.36747                  22410792.8924
        47.5004         32.7504
  22926612.7194    2815727.21149   2172047.21547                  22926610.4604
        44.0004         26.7504
  20873126.0934     646960.48849    495542.16048                  20873121.4594
        51.5004         40.2504
 04  7  1 18  7 45.0000000  0  8G 3G 9G14G15G18G19G21G22
  21908336.6314     999325.52749    769366.34447                  21908334.5924
        48.7504         34.7504
  23443176.1024     204296.81349    155134.21546                  23443174.8004
        37.2504         22.7504
  20325371.3574   -1938685.19549  -1501473.79748                  20325368.1694
        50.2504         42.2504
  19990010.8204      78083.73449     56909.94548                  19990008.1964
        51.7504         42.0004
  22483907.3704    2058402.62949   1586052.50047                  22483904.4884
        48.0004         32.0004
  22406424.2544   -2033729.31649  -1575901.17247                  22406419.7154
        47.5004         33.5004
  22934211.8294    2855658.33249   2203162.30947                  22934209.1624
        43.5004         27.5004
  20874968.6624     656641.09449    503085.49648                  20874963.8134
        50.2504         40.2504
 04  7  1 18  8  0.0000000  0  8G 3G 9G14G15G18G19G21G22
  21911613.2904    1016543.87949    782783.22747                  21911611.3154
        48.0004         34.7504
  23444640.1964     211987.05949    161126.59846                  23444637.9434
        38.5004         22.5004
  20321258.1494   -1960298.37549  -1518315.23048                  20321255.0154
        50.0004         42.0004
  19990891.8684      82713.48049     60517.53148                  19990889.3204
        51.2504         42.0004
  22489153.6314    2085972.11349   1607535.19947                  22489151.1634
        46.7504         32.0004
  22402075.2174   -2056581.53549  -1593708.09847                  22402071.3074
        45.7504         33.2504
  22941820.8764    2895647.71949   2234322.82846                  22941818.5204
        42.5004         25.0004
  20876816.9254     666355.95349    510655.50448                  20876811.9644
        50.2504         40.2504
 04  7  1 18  8 15.0000000  0  8G 3G 9G14G15G18G19G21G22
  21914910.5004    1033872.41849    796285.97747                  21914909.2894
        48.7504         35.2504
  23446130.8574     219821.40249    167231.27046                  23446129.2944
        40.5004         24.2504
  20317169.4724   -1981784.43049  -1535057.60248                  20317166.3764
        49.5004         42.2504
  19991793.5324      87454.02749     64211.46148                  19991791.5044
        51.5004         41.7504
  22494403.1034    2113556.88349   1629029.80947                  22494400.3974
        47.2504         32.0004
  22397751.8164   -2079302.88749  -1611413.05147                  22397747.7094
        44.2504         33.7504
  22949442.6584    2935697.74649   2265530.57847                  22949440.2294
        42.7504         27.2504
  20878672.8934     676107.57849    518254.18048                  20878668.0234
        50.7504         40.0004
 04  7  1 18  8 30.0000000  0  8G 3G 9G14G15G18G19G21G22
  21918227.9584    1051305.92249    809870.52747                  21918226.5484
        48.7504         35.0004
  23447648.8404     227795.01249    173444.46946                  23447646.6034
        40.7504         24.0004
  20313104.1804   -2003148.10549  -1551704.61348                  20313100.8644
        48.0004         42.0004
  19992716.0744      92300.48449     67987.91848                  19992713.2574
        51.2504         41.7504
  22499654.3274    2141152.14849   1650532.60547                  22499651.2534
        47.2504         30.7504
  22393451.6294   -2101898.06249  -1629019.67247                  22393448.0814
        44.0004         33.7504
  22957075.0364    2975803.50049   2296781.76647                  22957073.0094
        44.0004         28.7504
  20880534.8204     685891.03549    525877.64848                  20880529.8244
        49.7504         40.2504
 04  7  1 18  8 45.0000000  0  8G 3G 9G14G15G18G19G21G22
  21921565.9994    1068844.88349    823537.22747                  21921563.5564
        48.0004         35.0004
  23449192.1064     235908.58649    179766.71147                  23449190.9174
        40.0004         26.0004
  20309061.9704   -2024388.69949  -1568255.71948                  20309059.4894
        49.0004         42.2504
  19993658.7844      97253.60549     71847.48048                  19993655.9334
        51.0004         41.7504
  22504907.4954    2168758.64849   1672044.14147                  22504904.8734
        47.7504         31.0004
  22389175.8344   -2124366.20349  -1646527.30947                  22389172.1094
        45.7504         33.5004
  22964717.4684    3015965.50849   2328076.80147                  22964715.3364
        44.0004         28.5004
  20882402.5744     695706.93049    533526.40648                  20882397.8374
        50.0004         40.2504
 04  7  1 18  9  0.0000000  0  8G 3G 9G14G15G18G19G21G22
  21924923.4554    1086490.57049    837287.10247                  21924921.9974
        49.2504         35.5004
  23450762.9194     244163.29349    186198.93846                  23450762.4544
        40.0004         24.7504
  20305044.2514   -2045504.74249  -1584709.76648                  20305041.2414
        48.7504         42.2504
  19994622.0424     102314.94949     75791.38748                  19994619.0864
        51.7504         41.7504
  22510163.3514    2196377.75849   1693565.50847                  22510160.2234
        47.2504         31.2504
  22384925.3194   -2146705.93449  -1663934.88347                  22384920.7064
        47.0004         32.7504
  22972369.8434    3056185.03549   2359416.65247                  22972368.1344
        41.7504         26.0004
  20884276.9914     705556.61349    541201.47748                  20884272.1554
        49.7504         40.0004
 04  7  1 18  9 15.0000000  0  8G 3G 9G14G15G18G19G21G22
  21928301.6874    1104243.41049    851120.47747                  21928300.1424
        48.7504         35.5004
  23452360.7394     252559.99649    192741.78946                  23452359.4184
        39.2504         23.7504
  20301049.8834   -2066495.47349  -1601066.17648                  20301046.5734
        49.0004         42.5004
  19995605.8044     107485.35549     79820.27048                  19995603.4134
        51.0004         41.5004
  22515421.9904    2224009.99649   1715097.09447                  22515418.4714
        47.2504         31.5004
  22380698.5354   -2168916.28549  -1681241.64547                  22380694.1414
        46.0004         33.7504
  22980035.4464    3096462.83649   2390801.89146                  22980033.2724
        41.7504         25.0004
  20886157.3174     715440.86349    548903.48448                  20886153.0014
        50.2504         40.0004
 04  7  1 18  9 30.0000000  0  8G 3G 9G14G15G18G19G21G22
  21931700.0504    1122101.89149    865036.15247                  21931698.0514
        48.7504         36.0004
  23453986.4774     261097.32849    199394.24246                  23453983.4904
        40.0004         23.0004
  20297078.9554   -2087362.24249  -1617325.99248                  20297075.6964
        47.5004         42.5004
  19996610.3564     112763.53949     83933.12948                  19996607.7984
        51.7504         42.0004
  22520682.0774    2251654.02749   1736637.88747                  22520678.9684
        47.5004         31.5004
  22376496.3694   -2190998.43049  -1698448.51647                  22376492.3414
        46.7504         34.0004
  22987710.7434    3136797.39549   2422231.37947                  22987708.6934
        43.5004         26.0004
  20888045.1624     725358.15249    556631.23448                  20888040.4134
        48.0004         40.2504
 04  7  1 18  9 45.0000000  0  8G 3G 9G14G15G18G19G21G22
  21935118.9684    1140066.96149    879034.90647                  21935117.2064
        48.2504         35.5004
  23455637.0714     269776.48249    206157.19146                  23455634.8684
        38.5004         24.7504
  20293132.1424   -2108103.66049  -1633488.12548                  20293128.8514
        47.2504         42.0004
  19997635.3464     118150.84449     88131.03148                  19997632.8994
        51.2504         42.0004
  22525945.6524    2279311.10549   1758188.85547                  22525941.7854
        47.5004         31.5004
  22372319.2364   -2212950.80149  -1715554.26647                  22372314.9194
        44.0004         33.5004
  22995396.9654    3177189.65649   2453705.80947                  22995395.5384
        41.0004         26.7504
  20889938.6344     735309.70749    564385.69148                  20889933.9194
        48.7504         39.7504
 04  7  1 18 10  0.0000000  0  8G 3G 9G14G15G18G19G21G22
  21938557.9704    1158138.27349    893116.43847                  21938556.3724
        49.2504         35.2504
  23457315.9284     278597.28949    213030.55547                  23457314.0514
        38.7504         26.0004
  20289208.8524   -2128719.69149  -1649552.55948                  20289205.6614
        46.2504         41.7504
  19998680.9274     123647.29749     92413.98048                  19998679.0294
        51.2504         42.0004
  22531210.3034    2306981.19549   1779749.94547                  22531206.9934
        47.5004         31.0004
  22368166.2234   -2234773.43049  -1732558.90647                  22368162.4844
        46.5004         34.0004
  23003093.9934    3217639.45449   2485225.12147                  23003092.8774
        42.5004         27.0004
  20891838.7764     745295.39549    572166.75048                  20891834.2754
        47.2504         40.0004
 04  7  1 18 10 15.0000000  0  8G 3G 9G14G15G18G19G21G22
  21942016.9954    1176315.11749    907280.19947                  21942014.6444
        48.7504         34.5004
  23459020.9994     287559.35549    220014.00047                  23459020.0444
        41.0004         25.7504
  20285309.4504   -2149210.73449  -1665519.60248                  20285306.1304
        47.2504         42.0004
  19999747.7354     129252.52749     96781.68848                  19999745.4474
        51.0004         42.0004
  22536478.6144    2334663.83249   1801320.80947                  22536474.9904
        48.0004         30.7504
  22364038.4104   -2256466.57449  -1749462.66047                  22364034.4694
        47.2504         33.7504
  23010802.3314    3258146.31649   2516788.83247                  23010801.1924
        41.7504         26.7504
  20893745.4704     755314.82449    579974.09448                  20893740.9764
        48.0004         39.7504
 04  7  1 18 10 30.0000000  0  8G 3G 9G14G15G18G19G21G22
  21945495.6564    1194597.32049    921526.04747                  21945493.8874
        48.2504         35.0004
  23460752.9944     296662.66049    227107.45746                  23460752.1594
        37.5004         23.7504
  20281433.8744   -2169576.74649  -1681389.20748                  20281430.7204
        48.0004         42.0004
  20000834.9274     134966.62549    101234.21948                  20000832.9984
        52.0004         42.0004
  22541748.7444    2362358.86349   1822901.33247                  22541745.6094
        46.5004         31.0004
  22359934.9374   -2278030.10949  -1766265.42247                  22359931.0084
        48.0004         35.0004
  23018522.4074    3298710.19949   2548397.03947                  23018519.5564
        42.5004         27.0004
  20895658.5324     765367.77749    587807.55948                  20895653.7554
        48.5004         40.0004
 04  7  1 18 10 45.0000000  0  8G 3G 9G14G15G18G19G21G22
  21948995.0944    1212986.35249    935855.14847                  21948993.4174
        49.0004         35.0004
  23462512.9714     305908.91849    234312.34046                  23462512.2924
        38.7504         24.7504
  20277582.4214   -2189815.96149  -1697160.02348                  20277579.2844
        48.5004         42.0004
  20001943.8214     140791.46949    105773.05148                  20001940.9834
        51.2504         42.0004
  22547021.4484    2390068.12549   1844492.96147                  22547018.7524
        47.7504         31.0004
  22355856.5014   -2299462.18449  -1782965.73447                  22355852.5084
        47.5004         34.0004
  23026251.8254    3339332.71149   2580050.90247                  23026249.6944
        41.5004         26.2504
  20897578.2554     775455.98449    595668.49248                  20897573.4194
        49.2504         40.0004
 04  7  1 18 11  0.0000000  0  8G 3G 9G14G15G18G19G21G22
  21952514.8124    1231482.09449    950267.39547                  21952512.9624
        49.0004         34.5004
  23464298.6764     315298.03549    241628.49246                  23464299.2714
        39.2504         24.0004
  20273755.4394   -2209928.25849  -1712831.93748                  20273751.7624
        46.7504         42.5004
  20003073.2684     146727.24249    110398.32448                  20003070.6174
        50.7504         41.7504
  22552296.8614    2417791.70349   1866095.71947                  22552293.6964
        47.0004         30.5004
  22351803.5324   -2320762.56249  -1799563.42647                  22351799.5374
        44.5004         35.0004
  23033992.2694    3380013.75449   2611750.38746                  23033991.0974
        42.5004         25.2504
  20899504.6854     785579.60949    603557.02348                  20899499.8134
        49.5004         40.0004
 04  7  1 18 11 15.0000000  0  8G 3G 9G14G15G18G19G21G22
  21956053.5544    1250080.73849    964759.84047                  21956052.3954
        48.0004         34.5004
  23466112.2064     324826.44149    249053.22746                  23466112.0894
        37.5004         25.5004
  20269951.9534   -2229917.11749  -1728407.66848                  20269948.6004
        48.5004         42.0004
  20004223.0964     152770.46149    115107.33648                  20004220.7464
        51.5004         42.0004
  22557574.9184    2445525.92649   1887706.79347                  22557571.4054
        47.2504         30.0004
  22347774.4654   -2341934.62949  -1816061.15647                  22347770.4184
        45.7504         34.7504
  23041745.1914    3420749.60249   2643492.51247                  23041743.7854
        40.2504         26.7504
  20901436.9184     795734.91849    611470.25447                  20901432.3264
        49.5004         39.2504
 04  7  1 18 11 30.0000000  0  8G 3G 9G14G15G18G19G21G22
  21959612.8284    1268782.24249    979332.43047                  21959611.1024
        48.7504         35.0004
  23467953.1924     334494.36349    256586.62146                  23467952.3434
        40.5004         25.5004
  20266171.6544   -2249782.21949  -1743886.95348                  20266168.6094
        49.2504         42.2504
  20005393.6484     158921.47349    119900.33248                  20005390.9894
        51.5004         42.5004
  22562854.7324    2473271.30149   1909326.55147                  22562851.3694
        47.2504         30.0004
  22343769.9744   -2362978.02749  -1832458.60547                  22343765.9644
        47.2504         34.7504
  23049507.8994    3461540.46149   2675277.56347                  23049505.8474
        41.0004         28.0004
  20903375.4674     805922.18849    619408.38747                  20903370.7724
        50.2504         39.0004
 04  7  1 18 11 45.0000000  0  8G 3G 9G14G15G18G19G21G22
  21963192.0034    1287590.13749    993987.92247                  21963189.6524
        49.0004         36.0004
  23469819.4304     344305.53949    264231.72746                  23469818.8954
        40.5004         25.2504
  20262415.3994   -2269519.81249  -1759266.89548                  20262412.3714
        48.7504         42.5004
  20006585.2884     165184.01249    124780.22348                  20006582.8614
        51.7504         41.7504
  22568136.5284    2501031.15649   1930957.59447                  22568134.3664
        46.0004         30.5004
  22339790.7414   -2383888.82049  -1848752.73447                  22339786.4834
        46.5004         34.2504
  23057281.6334    3502389.93449   2707108.26247                  23057278.7184
        41.0004         27.0004
  20905320.9834     816145.08649    627374.27748                  20905316.4384
        49.5004         40.0004
 04  7  1 18 12  0.0000000  0  8G 3G 9G14G15G18G19G21G22
  21966790.8054    1306502.92649   1008725.14547                  21966788.3434
        48.7504         35.2504
  23471713.6814     354258.61749    271987.35246                  23471712.8624
        40.0004         25.2504
  20258683.4584   -2289131.11349  -1774548.42248                  20258680.3034
        48.2504         42.2504
  20007798.3074     171556.98049    129746.16448                  20007795.5424
        50.5004         41.2504
  22573422.2074    2528804.45349   1952599.09047                  22573418.8764
        47.0004         29.2504
  22335837.2664   -2404668.10949  -1864944.38347                  22335832.0504
        46.2504         34.2504
  23065065.8314    3543296.80149   2738983.71546                  23065062.8684
        41.5004         25.0004
  20907272.7044     826402.40649    635366.98448                  20907268.0614
        49.2504         40.0004
 04  7  1 18 12 15.0000000  0  8G 3G 9G14G15G18G19G21G22
  21970409.9164    1325520.55149   1023544.06647                  21970408.0374
        49.5004         35.0004
  23473634.0184     364353.75449    279853.64146                  23473634.4574
        36.7504         22.7504
  20254975.4044   -2308615.85249  -1789731.32448                  20254972.5584
        48.5004         42.2504
  20009031.9754     178040.59449    134798.32848                  20009029.0614
        51.7504         42.0004
  22578709.5914    2556591.27349   1974251.16047                  22578706.3924
        46.2504         29.5004
  22331907.8234   -2425315.55549  -1881033.28947                  22331903.0444
        46.0004         35.0004
  23072861.2694    3584260.98449   2770903.82447                  23072858.1634
        43.2504         27.0004
  20909231.2204     836694.19949    643386.55548                  20909226.5834
        49.5004         39.7504
 04  7  1 18 12 30.0000000  0  8G 3G 9G14G15G18G19G21G22
  21974048.4224    1344643.25049   1038444.84847                  21974046.6874
        49.5004         35.0004
  23475582.6234     374591.28549    287830.94546                  23475582.1424
        39.5004         25.0004
  20251292.0114   -2327973.49249  -1804815.19148                  20251289.0814
        47.7504         42.5004
  20010286.8014     184635.50449    139937.20748                  20010284.1434
        51.0004         41.5004
  22584000.3594    2584391.99249   1995914.03147                  22583997.2954
        46.0004         30.5004
  22328003.6984   -2445830.59449  -1897019.03947                  22327999.5774
        46.2504         35.0004
  23080666.8184    3625282.76649   2802868.80147                  23080664.7434
        42.2504         28.5004
  20911196.5744     847020.78549    651433.24248                  20911191.8784
        49.0004         40.5004
 04  7  1 18 12 45.0000000  0  8G 3G 9G14G15G18G19G21G22
  21977707.0664    1363868.38349   1053425.44947                  21977705.3954
        49.0004         35.0004
  23477557.6944     384968.88349    295917.34046                  23477555.9174
        39.0004         24.2504
  20247631.9164   -2347206.52749  -1819801.97348                  20247629.2334
        48.0004         42.2504
  20011563.0174     191339.45749    145161.05948                  20011560.3664
        52.5004         42.0004
  22589292.5094    2612204.17649   2017585.86347                  22589289.8154
        46.5004         29.2504
  22324124.8414   -2466215.45749  -1912903.33647                  22324120.2724
        46.0004         35.5004
  23088483.0084    3666359.43049   2834876.54747                  23088481.1694
        41.5004         27.2504
  20913168.1864     857379.73049    659505.14548                  20913163.2604
        48.7504         40.0004
 04  7  1 18 13  0.0000000  0  8G 3G 9G14G15G18G19G21G22
  21981385.1194    1383196.51249   1068486.32447                  21981383.3164
        49.0004         35.5004
  23479559.2874     395487.27749    304113.46547                  23479558.1754
        38.7504         26.0004
  20243996.1504   -2366313.91449  -1834690.84048                  20243992.9994
        46.7504         43.0004
  20012859.1754     198153.35549    150470.57848                  20012856.8664
        52.0004         41.5004
  22594587.5814    2640028.80549   2039267.37547                  22594585.4534
        46.7504         31.0004
  22320270.9964   -2486469.09849  -1928685.39147                  22320266.4234
        44.0004         35.5004
  23096310.7524    3707492.11349   2866927.93846                  23096308.8404
        41.5004         25.5004
  20915145.2064     867771.92249    667602.94948                  20915140.9244
        46.5004         40.2504
 04  7  1 18 13 15.0000000  0  8G 3G 9G14G15G18G19G21G22
  21985082.3854    1402627.39549   1083627.25847                  21985081.2934
        48.7504         35.2504
  23481588.3594     406146.34049    312419.21546                  23481585.8674
        39.7504         24.0004
  20240384.0984   -2385295.72749  -1849481.85248                  20240380.9324
        47.2504         42.2504
  20014176.9554     205077.21949    155865.79748                  20014174.4404
        51.5004         42.5004
  22599884.4934    2667865.70749   2060958.44147                  22599882.9544
        46.0004         30.2504
  22316441.2804   -2506591.47349  -1944365.15647                  22316437.2794
        45.2504         34.7504
  23104148.5654    3748680.64149   2899022.83246                  23104145.8954
        40.5004         25.0004
  20917129.0364     878197.24649    675726.57848                  20917124.7494
        48.7504         40.2504
 04  7  1 18 13 30.0000000  0  8G 3G 9G14G15G18G19G21G22
  21988799.6694    1422161.46549   1098848.60947                  21988798.3234
        49.0004         35.0004
  23483642.4354     416946.75449    320835.10946                  23483641.6914
        39.0004         23.0004
  20236795.9694   -2404151.23849  -1864174.45348                  20236792.4194
        46.0004         41.7504
  20015515.6564     212111.80149    161347.27348                  20015512.8934
        51.7504         41.7504
  22605184.6804    2695715.64549   2082659.66847                  22605181.6204
        46.5004         30.0004
  22312637.4264   -2526581.77049  -1959942.02047                  22312633.0194
        45.0004         34.0004
  23111998.3344    3789925.58249   2931161.71147                  23111994.7724
        43.0004         27.0004
  20919119.3174     888656.31349    683876.49648                  20919114.9504
        47.7504         40.0004
 04  7  1 18 13 45.0000000  0  8G 3G 9G14G15G18G19G21G22
  21992536.8864    1441799.26249   1114150.77347                  21992534.8424
        49.0004         34.5004
  23485724.4764     427889.30149    329361.77046                  23485724.0064
        38.5004         24.2504
  20233231.9184   -2422879.59049  -1878767.96948                  20233228.6104
        47.5004         42.0004
  20016875.5504     219258.00049    166915.72748                  20016873.0274
        51.2504         41.7504
  22610486.8234    2723579.52349   2104371.75847                  22610483.4644
        47.0004         29.5004
  22308858.8504   -2546439.15649  -1975415.29747                  22308853.9894
        44.0004         34.7504
  23119857.9624    3831227.28149   2963344.81347                  23119854.8684
        43.2504         27.7504
  20921116.6884     899149.91849    692053.32848                  20921111.7094
        49.0004         40.0004
 04  7  1 18 14  0.0000000  0  8G 3G 9G14G15G18G19G21G22
  21996293.2124    1461539.51249   1129532.76647                  21996291.3604
        49.2504         34.7504
  23487834.2154     438972.86349    337998.33246                  23487833.7454
        40.0004         25.2504
  20229691.8034   -2441481.73049  -1893263.13748                  20229688.7654
        46.5004         42.0004
  20018256.2494     226514.91049    172570.46148                  20018253.8134
        51.5004         42.0004
  22615791.4224    2751456.17249   2126093.83647                  22615788.4354
        47.0004         30.5004
  22305105.1534   -2566164.32049  -1990785.55147                  22305100.6404
        43.7504         34.0004
  23127726.8194    3872584.67249   2995571.31347                  23127725.5184
        40.5004         27.2504
  20923119.1974     909677.03149    700256.27048                  20923114.7974
        49.2504         40.5004
 04  7  1 18 14 15.0000000  0  8G 3G 9G14G15G18G19G21G22
  22000069.0484    1481382.74249   1144995.00447                  22000066.8924
        49.0004         34.7504
  23489970.2204     450198.15649    346745.28946                  23489969.4734
        37.2504         22.5004
  20226176.3544   -2459956.83649  -1907659.32048                  20226173.0394
        48.2504         41.5004
  20019658.5564     233883.39549    178312.12948                  20019656.2104
        52.2504         41.7504
  22621099.1634    2779346.31649   2147826.40647                  22621095.8914
        46.7504         29.2504
  22301376.4214   -2585756.50449  -2006052.19147                  22301372.0714
        44.5004         33.7504
  23135607.3394    3913998.59849   3027841.82046                  23135606.6704
        40.2504         25.2504
  20925129.5794     920238.32849    708485.84448                  20925124.6234
        50.5004         40.2504
 04  7  1 18 14 30.0000000  0  8G 3G 9G14G15G18G19G21G22
  22003864.5924    1501327.85249   1160536.63347                  22003861.9134
        49.0004         34.0004
  23492133.5804     461564.20749    355601.93846                  23492131.9174
        38.0004         25.0004
  20222684.5294   -2478305.79749  -1921957.21148                  20222681.4504
        48.5004         42.0004
  20021081.6634     241362.66449    184140.12948                  20021079.1704
        51.0004         41.5004
  22626408.8534    2807249.14149   2169568.84447                  22626406.5144
        46.5004         30.7504
  22297673.7744   -2605216.29349  -2021215.66047                  22297669.3144
        46.0004         34.5004
  23143499.0924    3955468.12849   3060155.63746                  23143497.1104
        40.0004         25.2504
  20927145.4164     930832.92249    716741.37548                  20927140.6004
        49.7504         40.5004
 04  7  1 18 14 45.0000000  0  8G 3G 9G14G15G18G19G21G22
  22007679.3744    1521373.34049   1176156.47747                  22007677.4114
        48.0004         34.2504
  23494322.6584     473069.82449    364567.34447                  23494321.5694
        37.7504         26.0004
  20219216.7744   -2496529.72349  -1936157.66448                  20219213.5774
        48.7504         42.0004
  20022526.0184     248951.62149    190053.59448                  20022523.3844
        50.7504         41.2504
  22631720.6084    2835163.35549   2191320.15247                  22631718.2654
        46.0004         30.0004
  22293995.5024   -2624544.78949  -2036276.82047                  22293990.9364
        44.5004         34.0004
  23151401.4784    3996991.68449   3092511.66446                  23151398.1564
        41.2504         25.5004
  20929167.6324     941459.64149    725021.92648                  20929163.2494
        49.2504         40.5004
 04  7  1 18 15  0.0000000  0  8G 3G 9G14G15G18G19G21G22
  22011513.1464    1541520.50849   1191855.57047                  22011511.6194
        49.2504         35.2504
  23496539.7724     484716.52349    373642.67646                  23496538.2354
        40.0004         25.2504
  20215773.0004   -2514627.04749  -1950259.47348                  20215769.8574
        48.0004         42.0004
  20023991.1834     256651.88349    196053.78948                  20023988.7714
        51.0004         41.7504
  22637035.1274    2863090.43849   2213081.49647                  22637032.0414
        45.5004         29.5004
  22290342.7004   -2643740.31249  -2051234.36747                  22290338.3574
        43.5004         35.0004
  23159313.0504    4038571.04749   3124911.14846                  23159310.2334
        40.0004         25.2504
  20931196.0744     952119.98449    733328.68448                  20931191.7124
        50.0004         39.7504
 04  7  1 18 15 15.0000000  0  8G 3G 9G14G15G18G19G21G22
  22015366.9074    1561770.05949   1207634.41047                  22015364.8784
        49.2504         34.7504
  23498782.6124     496505.09049    382828.55546                  23498781.1144
        39.5004         24.7504
  20212353.6104   -2532596.71549  -1964261.80148                  20212350.1504
        48.2504         42.0004
  20025478.2274     264464.50849    202141.53548                  20025475.4144
        52.0004         41.5004
  22642351.3794    2891031.53149   2234853.76247                  22642349.0854
        45.2504         30.5004
  22286715.4364   -2662801.72749  -2066087.41847                  22286711.5744
        44.5004         34.7504
  23167236.1614    4080206.79749   3157354.53947                  23167234.0784
        40.5004         26.5004
  20933231.7714     962814.80949    741662.32048                  20933226.8094
        50.0004         40.0004
 04  7  1 18 15 30.0000000  0  8G 3G 9G14G15G18G19G21G22
  22019238.7964    1582118.68449   1223490.46947                  22019236.5574
        48.2504         34.5004
  23501051.6484     508432.51249    392122.64546                  23501050.8364
        38.5004         23.5004
  20208957.8204   -2550441.88349  -1978167.11348                  20208954.2464
        49.0004         42.2504
  20026985.6374     272386.48049    208314.49648                  20026982.8574
        51.7504         42.0004
  22647670.7314    2918983.48449   2256634.48447                  22647668.3404
        44.7504         31.0004
  22283113.0834   -2681732.08249  -2080838.32847                  22283108.9904
        44.7504         34.7504
  23175169.4614    4121895.65249   3189839.28146                  23175167.6664
        39.5004         25.2504
  20935272.5844     973541.05549    750020.42248                  20935267.8514
        50.0004         39.7504
 04  7  1 18 15 45.0000000  0  8G 3G 9G14G15G18G19G21G22
  22023130.1524    1602567.09049   1239424.29347                  22023127.6834
        48.2504         34.2504
  23503349.3164     520499.68649    401525.56646                  23503346.4944
        38.7504         25.0004
  20205585.7244   -2568161.49249  -1991974.60248                  20205582.5504
        49.0004         42.0004
  20028513.9484     280418.74249    214573.39848                  20028511.6824
        51.2504         42.0004
  22652992.2914    2946947.25449   2278424.41047                  22652989.6094
        44.7504         30.5004
  22279535.6104   -2700530.29749  -2095486.28947                  22279532.2514
        44.2504         35.0004
  23183113.2594    4163638.41449   3222366.05547                  23183111.5154
        39.5004         26.0004
  20937319.6454     984299.60549    758403.69548                  20937314.9244
        49.2504         40.0004
 04  7  1 18 16  0.0000000  0  8G 3G 9G14G15G18G19G21G22
  22027039.8974    1623116.37949   1255436.70747                  22027038.3874
        48.2504         34.0004
  23505672.0864     532707.73049    411038.37946                  23505670.0384
        38.0004         24.2504
  20202237.7414   -2585754.09849  -2005683.12148                  20202234.5804
        48.7504         42.0004
  20030063.7894     288562.79749    220919.39848                  20030061.7504
        52.0004         42.0004
  22658316.2624    2974924.23449   2300224.62947                  22658313.3024
        45.0004         30.0004
  22275984.0974   -2719194.81649  -2110030.07447                  22275980.3704
        44.7504         34.0004
  23191066.7234    4205436.82049   3254936.18447                  23191065.5394
        40.5004         27.0004
  20939373.6204     995091.80149    766813.21148                  20939368.9274
        50.0004         39.5004
 04  7  1 18 16 15.0000000  0  8G 3G 9G14G15G18G19G21G22
  22030969.9614    1643767.11749   1271528.17247                  22030968.2704
        48.2504         33.5004
  23508021.9244     545057.67649    420661.65247                  23508021.0464
        39.0004         25.7504
  20198914.4874   -2603218.86749  -2019292.03148                  20198911.1344
        49.0004         41.7504
  20031634.8894     296819.69949    227353.34848                  20031632.3314
        50.7504         42.0004
  22663642.9464    3002915.27049   2322035.80547                  22663640.1184
        44.0004         28.7504
  22272457.9084   -2737724.64849  -2124468.91047                  22272453.9264
        42.7504         34.7504
  23199031.9234    4247291.21549   3287549.91846                  23199030.1974
        40.7504         24.7504
  20941434.0704    1005918.44149    775249.55148                  20941429.1264
        49.7504         39.7504
 04  7  1 18 16 30.0000000  0  8G 3G 9G14G15G18G19G21G22
  22034918.1384    1664515.55549   1287695.78547                  22034916.9654
        48.0004         34.5004
  23510397.8364     557545.67649    430392.66046                  23510398.3144
        38.2504         23.7504
  20195614.7804   -2620559.37949  -2032804.11748                  20195611.1734
        48.7504         41.5004
  20033226.9334     305185.89549    233872.44548                  20033224.6754
        51.5004         42.2504
  22668971.1474    3030916.76249   2343855.13347                  22668968.4264
        44.0004         28.5004
  22268957.3374   -2756123.33249  -2138805.55547                  22268953.1104
        45.0004         35.0004
  23207005.7254    4289197.95749   3320204.49246                  23207004.5774
        38.2504         25.0004
  20943500.0004    1016775.94549    783709.93448                  20943495.3714
        51.0004         39.7504
 04  7  1 18 16 45.0000000  0  8G 3G 9G14G15G18G19G21G22
  22038885.7924    1685364.18849   1303941.44547                  22038884.2034
        48.5004         34.0004
  23512800.8294     570174.52049    440233.23846                  23512800.7654
        38.7504         24.5004
  20192338.7904   -2637772.87149  -2046217.22348                  20192335.8984
        49.5004         42.0004
  20034840.4634     313664.17649    240478.88348                  20034837.9244
        51.5004         42.2504
  22674302.6014    3058931.34849   2365684.66847                  22674299.2334
        44.7504         30.0004
  22265481.4134   -2774387.94949  -2153037.71547                  22265477.4284
        45.2504         35.5004
  23214991.7904    4331159.65249   3352901.82846                  23214989.5744
        40.2504         22.7504
  20945572.5254    1027666.93449    792196.41848                  20945567.9894
        50.0004         40.2504
 04  7  1 18 17  0.0000000  0  8G 3G 9G14G15G18G19G21G22
  22042872.0554    1706311.58649   1320264.07847                  22042870.2144
        49.0004         35.0004
  23515229.5724     582942.97349    450182.65646                  23515230.0974
        36.2504         22.5004
  20189087.3664   -2654860.39549  -2059532.17648                  20189083.9494
        48.2504         41.5004
  20036474.9714     322253.46949    247171.82448                  20036472.6614
        51.2504         42.0004
  22679636.2564    3086957.90249   2387523.51647                  22679633.4094
        43.5004         30.5004
  22262030.7724   -2792519.51249  -2167166.21947                  22262027.0434
        45.2504         35.0004
  23222985.9384    4373175.16449   3385641.13346                  23222984.8394
        38.0004         22.7504
  20947651.3904    1038590.29349    800708.12148                  20947646.4074
        50.7504         40.2504
 04  7  1 18 17 15.0000000  0  8G 3G 9G14G15G18G19G21G22
  22046877.2224    1727358.33649   1336664.13747                  22046874.9454
        48.5004         34.2504
  23517687.0314     595851.71949    460241.40246                  23517686.9964
        37.0004         22.5004
  20185859.7834   -2671821.13349  -2072748.32448                  20185856.5554
        49.0004         42.2504
  20038130.9914     330954.64149    253951.94948                  20038128.0834
        52.0004         42.2504
  22684971.1744    3114997.15249   2409372.28547                  22684968.1514
        43.5004         31.0004
  22258606.1434   -2810517.01249  -2181190.23847                  22258602.1624
        45.0004         35.5004
  23230992.6554    4415244.88349   3418422.69946                  23230989.9374
        41.5004         23.5004
  20949736.2344    1049546.84849    809245.69548                  20949731.3704
        50.7504         40.2504
 04  7  1 18 17 30.0000000  0  8G 3G 9G14G15G18G19G21G22
  22050900.8834    1748504.62149   1353141.75447                  22050899.1344
        48.7504         34.2504
  23520170.1854     608901.26649    470409.85946                  23520169.7944
        37.5004         23.0004
  20182656.7334   -2688654.50449  -2085865.23848                  20182653.1884
        48.5004         41.7504
  20039808.0314     339768.30149    260819.72748                  20039805.4454
        52.0004         41.5004
  22690309.5314    3143049.86349   2431231.50447                  22690306.4234
        43.2504         30.0004
  22255206.8074   -2828379.91049  -2195109.40247                  22255202.6514
        44.5004         35.5004
  23239009.1244    4457369.17249   3451246.77046                  23239006.7504
        40.5004         23.0004
  20951827.2274    1060537.13349    817809.55148                  20951822.8374
        51.0004         40.0004
 04  7  1 18 17 45.0000000  0  8G 3G 9G14G15G18G19G21G22
  22054944.0454    1769748.82449   1369695.66047                  22054942.5144
        49.0004         35.0004
  23522681.4984     622090.21949    480686.92246                  23522679.3534
        40.5004         25.2504
  20179477.3244   -2705361.92249  -2098884.00048                  20179473.5454
        48.2504         42.2504
  20041506.3144     348693.22349    267774.19148                  20041503.8424
        52.0004         42.0004
  22695650.0134    3171114.47749   2453100.01647                  22695647.2194
        42.5004         29.7504
  22251833.0344   -2846109.41849  -2208924.58247                  22251829.6544
        44.5004         35.5004
  23247034.3384    4499547.01649   3484112.59846                  23247033.5024
        41.0004         24.7504
  20953925.2194    1071559.70349    826398.56348                  20953920.7064
        51.0004         40.0004
 04  7  1 18 18  0.0000000  0  8G 3G 9G14G15G18G19G21G22
  22059005.6624    1791093.54749   1386327.90247                  22059004.2514
        49.0004         35.0004
  23525217.1664     635421.23449    491074.72746                  23525216.4524
        39.0004         24.2504
  20176322.4244   -2721940.46549  -2111802.34048                  20176319.0924
        49.0004         42.0004
  20043226.5124     357732.32049    274817.63348                  20043223.9354
        51.7504         42.0004
  22700993.5544    3199194.02049   2474980.14547                  22700991.1814
        43.0004         31.0004
  22248485.0574   -2863702.52749  -2222633.50047                  22248481.5504
        46.0004         35.7504
  23255071.2654    4541780.69149   3517021.90646                  23255070.5784
        43.0004         25.0004
  20956029.5404    1082617.24649    835014.82848                  20956024.5924
        50.5004         40.5004
 04  7  1 18 18 15.0000000  0  8G 3G 9G14G15G18G19G21G22
  22063086.6634    1812537.19549   1403037.21547                  22063084.4294
        49.5004         34.7504
  23527781.3914     648892.89849    501572.14547                  23527780.8124
        38.7504         25.7504
  20173191.6914   -2738391.37549  -2124621.23048                  20173188.2454
        48.2504         42.2504
  20044968.0974     366884.29349    281949.03548                  20044965.3124
        50.7504         42.2504
  22706339.6464    3227287.06649   2496870.80947                  22706336.7884
        43.5004         30.5004
  22245162.6354   -2881160.50849  -2236237.12547                  22245159.4374
        45.0004         36.2504
  23263118.1724    4584068.91849   3549973.70746                  23263117.5284
        42.2504         25.0004
  20958139.5124    1093708.47749    843657.35248                  20958135.3134
        50.5004         40.2504
 04  7  1 18 18 30.0000000  0  8G 3G 9G14G15G18G19G21G22
  22067185.4114    1834078.18449   1419822.40647                  22067183.2804
        48.2504         34.0004
  23530371.5794     662503.85249    512178.03546                  23530369.8654
        39.2504         23.5004
  20170085.4034   -2754716.12549  -2137341.80548                  20170081.9634
        48.5004         42.0004
  20046730.4994     376147.86349    289167.38748                  20046728.2904
        50.5004         42.0004
  22711687.6584    3255392.17249   2518770.87547                  22711684.7164
        44.0004         30.7504
  22241866.2114   -2898484.60549  -2249736.43047                  22241862.2834
        43.5004         35.5004
  23271175.7184    4626410.34849   3582966.93846                  23271174.6454
        41.2504         22.5004
  20960256.3264    1104832.05549    852325.06648                  20960251.7764
        50.2504         40.0004
 04  7  1 18 18 45.0000000  0  8G 3G 9G14G15G18G19G21G22
  22071302.8124    1855718.66449   1436685.09047                  22071301.3304
        47.5004         34.2504
  23532987.3834     676256.30949    522894.23846                  23532986.3574
        39.5004         24.0004
  20167003.3444   -2770912.26249  -2149962.16848                  20167000.1374
        48.2504         42.0004
  20048514.8794     385525.48849    296474.62548                  20048512.9144
        49.5004         41.5004
  22717038.7334    3283511.84449   2540682.30147                  22717035.7134
        44.5004         30.0004
  22238595.5094   -2915672.31249  -2263129.44547                  22238591.7304
        46.2504         35.0004
  23279243.7534    4668807.09849   3616003.29746                  23279242.4014
        41.0004         23.0004
  20962379.7274    1115990.27749    861019.78147                  20962375.3574
        50.0004         39.2504
 04  7  1 18 19  0.0000000  0  8G 3G 9G14G15G18G19G21G22
  22075439.9624    1877456.46149   1453623.61347                  22075438.2824
        48.5004         35.7504
  23535631.5234     690148.28949    533719.14146                  23535629.8584
        38.7504         25.5004
  20163945.4754   -2786981.57849  -2162483.71548                  20163942.1874
        49.2504         42.2504
  20050321.3394     395015.36349    303869.33248                  20050318.8074
        51.5004         42.2504
  22722391.5784    3311644.05549   2562603.46947                  22722389.0724
        44.0004         30.0004
  22235350.7414   -2932725.40249  -2276417.57047                  22235346.8344
        47.0004         35.5004
  23287322.0954    4711257.27349   3649081.31646                  23287320.2074
        44.0004         24.7504
  20964509.7084    1127181.27349    869740.03547                  20964504.9244
        50.7504         39.2504
 04  7  1 18 19 15.0000000  0  8G 3G 9G14G15G18G19G21G22
  22079595.0394    1899290.17249   1470636.88747                  22079593.4314
        47.7504         35.0004
  23538301.2204     704178.55949    544651.76646                  23538299.5744
        39.7504         24.2504
  20160911.6634   -2802925.34449  -2174907.42648                  20160908.4274
        48.7504         41.7504
  20052148.3934     404616.41049    311350.65648                  20052145.7054
        51.0004         42.2504
  22727747.1744    3339787.66049   2584533.53147                  22727744.3134
        43.2504         29.5004
  22232130.9814   -2949644.87549  -2289601.57047                  22232127.4354
        45.0004         35.7504
  23295410.5474    4753759.44949   3682199.85947                  23295408.5104
        41.0004         25.7504
  20966645.0324    1138403.71149    878484.79348                  20966640.2224
        50.7504         39.7504
 04  7  1 18 19 30.0000000  0  8G 3G 9G14G15G18G19G21G22
  22083767.9534    1921219.35249   1487724.54747                  22083766.0184
        49.0004         35.2504
  23540997.4184     718346.98049    555692.10946                  23540996.0344
        40.0004         24.5004
  20157901.6234   -2818743.56249  -2187233.30548                  20157898.2484
        49.7504         41.5004
  20053996.5014     414328.64849    318918.62548                  20053994.0354
        51.7504         42.5004
  22733105.7894    3367942.71149   2606472.49647                  22733103.0264
        44.7504         30.0004
  22228936.7984   -2966430.71949  -2302681.46147                  22228933.0054
        46.5004         35.5004
  23303507.3084    4796313.45349   3715358.81346                  23303505.8664
        41.0004         25.2504
  20968786.4884    1149657.63349    887254.07448                  20968781.5374
        50.2504         39.7504
 04  7  1 18 19 45.0000000  0  8G 3G 9G14G15G18G19G21G22
  22087958.8914    1943245.19949   1504887.53547                  22087957.2154
        48.2504         34.2504
  23543719.8404     732654.94949    566841.18846                  23543719.1234
        38.5004         23.0004
  20154915.5784   -2834434.73449  -2199460.18748                  20154912.2014
        49.5004         42.0004
  20055866.1814     424153.56349    326574.41048                  20055863.4944
        51.0004         42.0004
  22738465.5464    3396110.56349   2628421.46547                  22738462.8464
        45.2504         30.5004
  22225767.9854   -2983081.39149  -2315656.01247                  22225764.2474
        46.5004         34.7504
  23311614.0204    4838920.50449   3748559.02346                  23311614.3744
        39.0004         23.0004
  20970933.9354    1160944.42249    896048.97748                  20970929.6114
        49.7504         39.7504
 04  7  1 18 20  0.0000000  0  8G 3G 9G14G15G18G19G21G22
  22092169.4464    1965369.79749   1522127.48047                  22092167.4724
        48.0004         34.0004
  23546468.7944     747104.60949    578100.62146                  23546468.3944
        38.5004         22.5004
  20151953.7694   -2849996.58249  -2211586.29348                  20151950.9504
        49.5004         42.5004
  20057757.7394     434093.57849    334319.87948                  20057754.9354
        52.0004         42.0004
  22743828.3734    3424293.63349   2650382.28147                  22743825.8954
        44.5004         29.5004
  22222625.8504   -2999594.50849  -2328523.38347                  22222621.9924
        46.0004         35.0004
  23319733.4554    4881582.79749   3781802.27046                  23319732.7304
        39.0004         22.2504
  20973088.8314    1172266.36349    904871.25848                  20973084.0014
        50.7504         39.7504
 04  7  1 18 20 15.0000000  0  8G 3G 9G14G15G18G19G21G22
  22096398.2694    1987591.37949   1539442.97747                  22096395.7594
        49.0004         35.0004
  23549244.8224     761694.38349    589469.25846                  23549245.0964
        38.0004         22.0004
  20149017.0754   -2865430.62149  -2223612.81648                  20149013.5874
        48.7504         42.0004
  20059670.5504     444147.11349    342153.81348                  20059667.8354
        51.5004         41.5004
  22749194.4304    3452490.28149   2672353.68047                  22749191.5344
        44.7504         29.7504
  22219509.6414   -3015971.48849  -2341284.66447                  22219505.3324
        44.0004         35.0004
  23327861.7354    4924298.75049   3815087.34846                  23327861.4594
        40.5004         23.5004
  20975249.3514    1183621.89149    913719.71548                  20975244.7074
        50.5004         39.5004
 04  7  1 18 20 30.0000000  0  8G 3G 9G14G15G18G19G21G22
  22100645.1374    2009911.30149   1556835.11347                  22100643.5194
        48.7504         34.5004
  23552049.9524     776425.82849    600948.25446                  23552048.4754
        39.5004         22.7504
  20146104.7624   -2880735.13749  -2235538.40648                  20146101.0474
        47.7504         42.5004
  20061605.2864     454315.93049    350077.57048                  20061602.9584
        51.2504         41.5004
  22754562.8404    3480702.16049   2694336.94547                  22754560.2464
        45.0004         30.5004
  22216419.3014   -3032210.54349  -2353938.46947                  22216415.0604
        43.5004         35.2504
  23336002.0964    4967070.13349   3848415.65247                  23336001.3394
        42.7504         26.7504
  20977417.1164    1195012.64549    922595.62147                  20977412.4674
        50.5004         39.2504
 04  7  1 18 20 45.0000000  0  8G 3G 9G14G15G18G19G21G22
  22104909.7804    2032323.73849   1574299.34447                  22104908.1354
        48.0004         34.0004
  23554879.1494     791293.28549    612533.25847                  23554877.4964
        40.0004         25.7504
  20143216.0114   -2895915.72349  -2247367.43448                  20143212.5274
        49.2504         42.5004
  20063561.4624     464594.57449    358086.91048                  20063559.3384
        50.5004         42.0004
  22759932.8534    3508923.74649   2716327.77347                  22759930.7974
        43.7504         30.7504
  22213354.4644   -3048317.14549  -2366489.07447                  22213350.4114
        45.5004         35.0004
  23344150.4864    5009891.15649   3881782.64146                  23344148.7254
        41.5004         25.0004
  20979590.0314    1206433.05149    931494.63747                  20979585.7344
        49.5004         39.2504
 04  7  1 18 21  0.0000000  0  8G 3G 9G14G15G18G19G21G22
  22408985.5144    2054829.20349   1591836.05147                  22408983.4094
        48.5004         34.2504
  23857526.2724     806297.85949    624225.14846                  23857525.6284
        38.0004         23.5004
  20440143.7784   -2910969.06649  -2259097.30948                  20440140.5934
        49.0004         42.5004
  20365331.3084     474984.75449    366183.14148                  20365329.1434
        50.2504         42.5004
  23065097.9354    3537155.51249   2738326.51647                  23065095.7354
        45.0004         30.5004
  22510107.5564   -3064287.72749  -2378933.69547                  22510103.5674
        44.7504         35.0004
  23652100.9634    5052761.03549   3915187.67646                  23652099.2744
        42.2504         25.2504
  21281561.5324    1217884.57449    940417.89847                  21281557.1694
        50.0004         39.2504
 04  7  1 18 21 15.0000000  0  8G 3G 9G14G15G18G19G21G22
  22413286.9994    2077431.06649   1609447.86747                  22413284.6084
        47.7504         34.7504
  23860408.6634     821442.16049    636025.86746                  23860408.0954
        40.0004         25.0004
  20437303.3494   -2925896.50849  -2270729.08248                  20437300.0844
        46.5004         42.5004
  20367330.0434     485488.43849    374367.82848                  20367327.6354
        51.2504         43.0004
  23070472.8544    3565401.75449   2760336.55147                  23070470.9584
        44.7504         30.2504
  22507094.0194   -3080123.81249  -2391273.48047                  22507090.2044
        42.7504         35.2504
  23660269.4724    5095685.89549   3948635.59446                  23660266.6124
        42.7504         22.7504
  21283747.5694    1229369.41449    949367.11347                  21283742.9584
        50.5004         39.2504
 04  7  1 18 21 30.0000000  0  8G 3G 9G14G15G18G19G21G22
  22417605.3854    2100127.10249   1627133.07447                  22417604.0154
        48.5004         35.2504
  23863315.4704     836724.49249    647934.18046                  23863316.1274
        39.0004         22.5004
  20434486.6704   -2940697.66449  -2282262.44948                  20434483.3414
        49.0004         42.5004
  20369350.1094     496104.53949    382640.10248                  20369348.2314
        48.7504         42.2504
  23075850.2384    3593660.14849   2782356.05147                  23075847.6924
        45.7504         30.5004
  22504106.4174   -3095824.78949  -2403508.00847                  22504101.9814
        46.0004         35.7504
  23668446.8004    5138662.19149   3982123.56646                  23668444.8114
        42.0004         22.2504
  21285938.8674    1240886.14849    958341.18847                  21285934.1824
        46.5004         39.2504
 04  7  1 18 21 45.0000000  0  8G 3G 9G14G15G18G19G21G22
  22421941.3514    2122914.60549   1644889.57047                  22421940.3144
        47.0004         34.7504
  23866250.9714     852142.48849    659948.19946                  23866249.1304
        40.0004         24.5004
  20431693.9114   -2955374.85949  -2293699.21148                  20431690.6274
        48.0004         42.0004
  20371391.0764     506830.72349    390998.15648                  20371389.1144
        46.2504         41.7504
  23081229.7624    3621928.16849   2804383.07447                  23081226.8014
        45.7504         30.2504
  22501143.9124   -3111392.87949  -2415638.97747                  22501139.8764
        46.7504         34.7504
  23676635.3044    5181687.30549   4015649.56346                  23676632.0304
        43.2504         24.7504
  21288136.3374    1252432.50449    967338.33648                  21288131.7544
        45.7504         39.5004
 04  7  1 18 22  0.0000000  0  8G 3G 9G14G15G18G19G21G22
  22426295.9474    2145797.30149   1662720.21947                  22426294.9544
        47.7504         33.5004
  23869212.1164     867699.94949    672070.87146                  23869210.4284
        39.0004         24.7504
  20428924.9224   -2969924.04749  -2305036.23848                  20428922.0774
        50.0004         42.0004
  20373454.4284     517671.00049    399445.11348                  20373451.9894
        46.5004         42.2504
  23086611.9234    3650209.87149   2826420.73847                  23086609.2464
        45.2504         30.7504
  22498207.3334   -3126824.05149  -2427663.27347                  22498203.3074
        47.2504         34.5004
  23684832.0974    5224765.32349   4049216.83246                  23684830.4784
        42.7504         25.2504
  21290340.0374    1264012.41049    976361.64148                  21290335.3404
        45.2504         39.5004
 04  7  1 18 22 15.0000000  0  8G 3G 9G14G15G18G19G21G22
  22430668.0884    2168772.49649   1680622.94547                  22430666.8524
        47.7504         34.5004
  23872198.0334     883394.44549    684300.35246                  23872196.7954
        39.5004         24.5004
  20426180.2494   -2984347.62949  -2316275.39148                  20426177.0824
        49.5004         42.2504
  20375538.0724     528623.01249    407979.14148                  20375536.1034
        46.5004         41.7504
  23091995.4594    3678502.92249   2848467.24647                  23091993.5304
        46.0004         30.5004
  22495296.5764   -3142120.50049  -2439582.59847                  22495291.7284
        47.2504         33.7504
  23693039.5274    5267893.83649   4082823.37546                  23693037.2984
        43.5004         25.2504
  21292549.3934    1275623.40249    985409.16047                  21292544.8274
        45.7504         39.2504
 04  7  1 18 22 30.0000000  0  8G 3G 9G14G15G18G19G21G22
  22435058.0384    2191842.32849   1698599.42647                  22435056.6434
        48.2504         34.2504
  23875211.7084     899228.21149    696638.33646                  23875209.9154
        42.0004         23.7504
  20423460.0814   -2998643.22749  -2327414.81248                  20423456.8064
        49.2504         42.5004
  20377644.4134     539689.24249    416602.18448                  20377642.0284
        48.0004         41.7504
  23097381.8034    3706809.72749   2870524.48847                  23097380.0874
        45.5004         28.7504
  22492412.1674   -3157279.85949  -2451395.09047                  22492408.1544
        47.5004         34.5004
  23701257.2464    5311075.01249   4116471.00446                  23701254.7034
        44.0004         24.7504
  21294765.2124    1287267.85949    994482.76248                  21294760.5874
        46.5004         39.7504
 04  7  1 18 22 45.0000000  0  8G 3G 9G14G15G18G19G21G22
  22439465.8324    2215005.69949   1716648.78147                  22439464.2644
        48.0004         33.7504
  23878250.4074     915200.32449    709084.11747                  23878249.4054
        40.5004         26.5004
  20420763.8334   -3012811.64549  -2338455.13348                  20420760.5654
        50.5004         41.7504
  20379771.7384     550868.97749    425313.66048                  20379768.7384
        50.7504         42.0004
  23102771.4814    3735129.50449   2892591.82847                  23102768.6814
        46.0004         29.2504
  22489553.1454   -3172302.84049  -2463101.29747                  22489549.0754
        47.2504         34.2504
  23709483.7744    5354307.75449   4150158.76646                  23709482.3074
        42.7504         24.0004
  21296987.3684    1298944.92649   1003581.75848                  21296982.8454
        50.2504         40.2504
 04  7  1 18 23  0.0000000  0  8G 3G 9G14G15G18G19G21G22
  22443891.4484    2238262.85949   1734771.23447                  22443889.8324
        47.2504         34.2504
  23881315.9104     931311.26649    721638.05946                  23881315.7134
        40.5004         24.5004
  20418091.9464   -3026852.43049  -2349396.00448                  20418088.6304
        50.0004         42.0004
  20381920.9274     562162.71949    434113.97348                  20381918.3474
        52.0004         42.0004
  23108163.6584    3763462.70349   2914669.61747                  23108160.4064
        46.0004         31.0004
  22486719.8844   -3187188.79749  -2474700.75447                  22486716.0424
        48.2504         34.7504
  23717719.8894    5397592.40649   4183887.00446                  23717718.8624
        41.0004         22.2504
  21299215.5934    1310655.05149   1012706.53147                  21299211.2234
        51.0004         39.0004
 04  7  1 18 23 15.0000000  0  8G 3G 9G14G15G18G19G21G22
  22448334.7544    2261612.99649   1752966.12147                  22448333.6724
        48.0004         33.5004
  23884407.5324     947560.35949    734299.66846                  23884407.6704
        40.0004         22.5004
  20415444.4324   -3040765.96949  -2360237.71148                  20415440.8534
        50.2504         42.0004
  20384091.4984     573570.12949    443002.85548                  20384089.2784
        51.5004         41.7504
  23113557.0494    3791808.85949   2936757.53947                  23113554.6464
        46.5004         30.5004
  22483913.9194   -3201938.06249  -2486193.70747                  22483909.9104
        47.7504         36.2504
  23725966.0434    5440928.66049   4217655.44946                  23725965.5674
        41.2504         22.2504
  21301450.3124    1322397.80549   1021856.72347                  21301445.5884
        50.5004         39.0004
 04  7  1 18 23 30.0000000  0  8G 3G 9G14G15G18G19G21G22
  22452795.6904    2285055.86349   1771233.28547                  22452794.2984
        47.5004         34.0004
  23887526.9524     963947.58249    747068.94546                  23887525.4224
        38.2504         22.5004
  20412820.8004   -3054552.39549  -2370980.37548                  20412817.3624
        50.0004         42.2504
  20386283.8954     585091.21149    451980.31348                  20386281.6394
        51.5004         42.0004
  23118953.7054    3820168.05549   2958855.57847                  23118951.0564
        45.5004         29.7504
  22481133.2114   -3216550.59849  -2497580.10547                  22481128.7724
        48.2504         35.5004
  23734224.0424    5484316.19949   4251463.85546                  23734220.8484
        43.0004         21.7504
  21303691.3354    1334173.18049   1031032.31648                  21303686.4384
        50.5004         39.5004
 04  7  1 18 23 45.0000000  0  8G 3G 9G14G15G18G19G21G22
  22457273.8374    2308587.73049   1789569.79747                  22457272.4834
        48.0004         34.0004
  23890671.0334     980469.09049    759942.83246                  23890668.7004
        39.7504         22.7504
  20410220.8854   -3068215.25049  -2381626.75048                  20410217.6004
        48.0004         42.5004
  20388496.9864     596722.45749    461043.61348                  20388494.5364
        51.5004         42.0004
  23124351.9674    3848536.63349   2980960.93447                  23124349.4524
        46.0004         29.2504
  22478377.9854   -3231029.98849  -2508862.74647                  22478373.5864
        46.0004         36.0004
  23742488.1604    5527751.18449   4285309.26246                  23742486.9354
        42.0004         22.5004
  21305937.4764    1345977.52049   1040230.50448                  21305933.1074
        51.0004         39.7504
 04  7  1 18 24  0.0000000  0  8G 3G 9G14G15G18G19G21G22
  22461769.5714    2332211.37949   1807977.80947                  22461767.6964
        48.0004         33.5004
  23893841.4404     997128.07049    772923.83246                  23893839.6744
        41.0004         24.0004
  20407645.1434   -3081751.35249  -2392174.35948                  20407642.1364
        47.2504         42.0004
  20390731.9494     608467.10249    470195.27348                  20390729.4464
        52.0004         41.7504
  23129752.3114    3876917.73849   3003076.05547                  23129750.8624
        44.5004         30.0004
  22475649.2374   -3245372.86749  -2520039.00847                  22475644.1984
        45.2504         35.7504
  23750764.2254    5571236.77349   4319194.09046                  23750762.0104
        43.2504         23.5004
  21308189.7174    1357814.02349   1049453.74648                  21308185.1674
        51.0004         40.5004
 04  7  1 18 24 15.0000000  0  8G 3G 9G14G15G18G19G21G22
  22466281.9844    2355927.00449   1826457.50047                  22466280.9824
        47.5004         33.5004
  23897036.2634    1013924.73049    786012.14546                  23897036.3614
        39.5004         25.5004
  20405093.6354   -3095160.23849  -2402622.84048                  20405090.5854
        48.7504         42.0004
  20392988.8304     620325.66849    479435.71948                  20392986.3584
        52.0004         42.0004
  23135156.1404    3905311.94949   3025201.38747                  23135153.8674
        46.5004         30.5004
  22472945.2414   -3259578.66449  -2531108.46947                  22472941.0074
        47.5004         37.0004
  23759049.5854    5614773.27349   4353118.54746                  23759047.5024
        43.5004         24.7504
  21310448.6644    1369683.11349   1058702.37948                  21310444.0984
        51.2504         40.5004
 04  7  1 18 24 30.0000000  0  8G 3G 9G14G15G18G19G21G22
  22470812.1844    2379733.87149   1845008.28547                  22470811.0874
        47.5004         33.2504
  23900259.1324    1030858.65649    799207.36746                  23900258.6894
        40.0004         23.5004
  20402565.7664   -3108442.28949  -2412972.48848                  20402562.9654
        49.7504         42.0004
  20395266.7944     632297.72749    488764.59848                  20395264.5334
        52.0004         42.5004
  23140562.0914    3933718.81349   3047336.59047                  23140558.8334
        46.0004         30.5004
  22470267.5104   -3273647.81649  -2542071.44147                  22470263.6844
        47.7504         36.5004
  23767342.6124    5658360.21549   4387082.35546                  23767341.9354
        42.0004         23.0004
  21312713.1724    1381584.33249   1067976.04348                  21312708.5044
        50.7504         40.0004
 04  7  1 18 24 45.0000000  0  8G 3G 9G14G15G18G19G21G22
  22475360.2114    2403632.93849   1863630.91847                  22475358.4144
        47.0004         32.7504
  23903507.8754    1047930.94549    812510.42246                  23903506.5734
        39.0004         23.0004
  20400062.6434   -3121596.29349  -2423222.35548                  20400059.7964
        50.0004         42.0004
  20397566.9354     644384.60549    498182.94948                  20397564.6984
        51.2504         42.5004
  23145970.1574    3962139.53949   3069482.59447                  23145967.3464
        46.2504         29.2504
  22467616.6474   -3287578.96949  -2552926.88347                  22467612.8554
        47.7504         36.0004
  23775646.8874    5701998.59449   4421086.20746                  23775646.2364
        41.2504         24.5004
  21314984.3604    1393518.87149   1077275.68448                  21314979.5674
        51.0004         40.2504
 04  7  1 18 25  0.0000000  0  8G 3G 9G14G15G18G19G21G22
  22479925.0744    2427621.67649   1882323.43047                  22479924.3024
        48.2504         34.0004
  23906782.4274    1065139.29749    825919.53146                  23906781.9534
        38.0004         23.0004
  20397583.9834   -3134624.48449  -2433374.19148                  20397580.4144
        50.5004         42.0004
  20399888.3434     656584.12149    507689.05548                  20399886.1024
        51.5004         42.0004
  23151380.2864    3990571.94949   3091637.70747                  23151377.6414
        46.5004         30.0004
  22464991.2974   -3301374.26649  -2563676.46547                  22464987.9804
        47.7504         37.0004
  23783960.3904    5745686.13749   4455128.36746                  23783958.8594
        43.0004         22.2504
  21317261.0164    1405484.53949   1086599.57048                  21317256.7444
        51.5004         40.0004
 04  7  1 18 25 15.0000000  0  8G 3G 9G14G15G18G19G21G22
  22484507.9494    2451702.28949   1901087.52347                  22484506.3894
        47.5004         34.5004
  23910083.4294    1082485.85949    839436.31346                  23910083.6214
        38.7504         22.7504
  20395129.0724   -3147524.52749  -2443426.17248                  20395125.4974
        50.0004         42.0004
  20402231.7084     668898.62549    517284.76648                  20402229.6124
        51.5004         41.7504
  23156793.8214    4019018.34849   3113803.70347                  23156790.9994
        45.7504         29.5004
  22462392.6854   -3315031.34849  -2574318.34847                  22462389.0734
        47.7504         36.0004
  23792283.8304    5789424.88349   4489210.44146                  23792282.4404
        41.7504         22.7504
  21319544.8734    1417483.64149   1095949.50848                  21319540.0814
        51.5004         40.0004
 04  7  1 18 25 30.0000000  0  8G 3G 9G14G15G18G19G21G22
  22489107.6654    2475872.40649   1919921.34847                  22489105.4944
        48.7504         34.5004
  23913410.5304    1099968.59049    853059.18846                  23913409.7844
        38.5004         22.7504
  20392698.0614   -3160298.39149  -2453379.82048                  20392694.7684
        49.7504         41.7504
  20404596.7864     681326.16449    526968.55948                  20404594.7204
        52.0004         41.5004
  23162209.4444    4047476.85249   3135979.13747                  23162206.1034
        45.5004         29.7504
  22459819.9394   -3328551.95749  -2584853.89547                  22459815.9924
        47.2504         36.0004
  23800617.0394    5833212.89549   4523330.91046                  23800614.2494
        44.0004         22.5004
  21321834.0994    1429514.19549   1105323.96548                  21321829.7704
        50.7504         40.0004
 04  7  1 18 25 45.0000000  0  8G 3G 9G14G15G18G19G21G22
  22493723.8914    2500129.28149   1938822.79747                  22493722.0944
        48.2504         34.2504
  23916763.4074    1117584.66049    866786.00846                  23916761.7314
        40.0004         23.0004
  20390290.8914   -3172948.68049  -2463237.18748                  20390287.3424
        47.7504         42.0004
  20406982.6114     693864.30149    536738.53148                  20406980.5614
        49.5004         42.0004
  23167626.6934    4075944.95749   3158162.05547                  23167624.0674
        45.5004         30.0004
  22457272.7704   -3341938.66849  -2595285.10247                  22457268.5564
        46.0004         35.7504
  23808959.1374    5877047.43049   4557487.64846                  23808955.7034
        44.0004         22.5004
  21324129.0924    1441573.60549   1114720.90248                  21324124.0584
        50.0004         40.0004
 04  7  1 18 26  0.0000000  0  8G 3G 9G14G15G18G19G21G22
  22498355.7744    2524474.32049   1957792.96147                  22498354.5704
        48.0004         34.0004
  23920140.3834    1135335.83649    880618.09446                  23920139.8944
        40.0004         22.7504
  20387906.9544   -3185473.73049  -2472996.96548                  20387903.8154
        46.5004         42.5004
  20409390.0764     706514.92249    546596.14148                  20409387.7314
        46.5004         42.2504
  23173046.3374    4104424.23449   3180353.68047                  23173043.8704
        45.0004         30.5004
  22454751.0864   -3355189.62149  -2605610.52347                  22454746.7124
        43.2504         35.0004
  23817308.7104    5920930.10249   4591681.93446                  23817306.4244
        42.5004         23.5004
  21326429.5674    1453663.81649   1124141.83648                  21326424.7274
        45.7504         40.0004
 04  7  1 18 26 15.0000000  0  8G 3G 9G14G15G18G19G21G22
  22503005.9674    2548907.74249   1976831.97347                  22503004.6164
        48.0004         34.2504
  23923544.2714    1153222.42649    894555.66046                  23923543.1744
        39.2504         22.5004
  20385548.1014   -3197873.02049  -2482658.73848                  20385544.6584
        48.5004         42.0004
  20411818.5104     719278.45349    556541.74648                  20411816.6114
        46.5004         41.7504
  23178467.8564    4132915.18449   3202554.41447                  23178465.2214
        44.0004         29.7504
  22452255.6704   -3368304.30949  -2615829.76247                  22452251.0234
        47.0004         35.2504
  23825669.0724    5964861.37549   4625913.99246                  23825666.9824
        42.2504         23.0004
  21328736.0904    1465785.06349   1133586.95748                  21328731.5164
        46.2504         40.0004
 04  7  1 18 26 30.0000000  0  8G 3G 9G14G15G18G19G21G22
  22507671.8614    2573426.92649   1995937.81347                  22507670.4204
        48.2504         35.0004
  23926973.7554    1171241.91049    908596.78146                  23926971.9834
        38.5004         21.5004
  20383211.8824   -3210149.03949  -2492224.46548                  20383208.5044
        49.7504         42.0004
  20414268.7884     732152.50849    566573.46948                  20414266.3994
        46.5004         42.0004
  23183891.5544    4161415.35249   3224762.30947                  23183888.6724
        41.2504         28.0004
  22449784.9164   -3381285.09849  -2625944.67247                  22449780.8184
        47.2504         35.0004
  23834036.4744    6008838.47349   4660181.78546                  23834035.6354
        39.7504         21.7504
  21331048.4244    1477934.92249   1143054.37948                  21331043.9754
        46.0004         40.2504
 04  7  1 18 26 45.0000000  0  8G 3G 9G14G15G18G19G21G22
  22512354.5974    2598035.17649   2015113.04747                  22512352.6204
        48.7504         33.7504
  23930428.3574    1189397.80149    922744.21146                  23930427.4624
        40.5004         22.5004
  20380899.8204   -3222298.18449  -2501691.32848                  20380896.5774
        48.2504         41.5004
  20416740.2214     745140.76649    576694.18448                  20416738.0684
        46.5004         42.0004
  23189317.1544    4189928.59049   3246980.38747                  23189314.2754
        41.5004         28.5004
  22447341.1964   -3394128.23449  -2635952.32047                  22447337.5824
        46.5004         36.0004
  23842414.2854    6052864.95749   4694488.02046                  23842414.8874
        38.5004         22.5004
  21333366.1394    1490117.04749   1152546.94148                  21333362.0534
        45.7504         39.7504
 04  7  1 18 27  0.0000000  0  8G 3G 9G14G15G18G19G21G22
  22517053.9994    2622730.94949   2034356.47347                  22517051.8304
        48.5004         34.0004
  23933909.4674    1207688.77349    936996.88346                  23933907.9504
        40.0004         23.0004
  20378611.8744   -3234321.55949  -2511060.18748                  20378608.4694
        46.7504         42.0004
  20419233.4394     758242.10549    586903.01248                  20419230.7584
        49.7504         42.2504
  23194745.3344    4218453.61349   3269207.65247                  23194741.9314
        43.2504         29.0004
  22444923.1744   -3406834.85949  -2645853.59847                  22444919.0844
        43.7504         35.7504
  23850803.1754    6096939.59049   4728831.82846                  23850800.9514
        41.7504         22.2504
  21335690.2814    1502330.26649   1162063.73048                  21335686.2224
        49.0004         40.0004
 04  7  1 18 27 15.0000000  0  8G 3G 9G14G15G18G19G21G22
  22521770.0734    2647516.44149   2053669.84447                  22521768.2424
        48.5004         33.2504
  23937416.6044    1226117.13749    951356.64546                  23937414.6804
        41.2504         23.0004
  20376348.6524   -3246216.67649  -2520329.11348                  20376344.9494
        48.7504         41.7504
  20421748.5134     771459.08249    597201.94148                  20421745.9584
        50.2504         42.0004
  23200176.3144    4246993.06649   3291446.19147                  23200173.0444
        40.5004         28.2504
  22442531.7254   -3419402.43449  -2655646.51247                  22442526.9964
        45.5004         35.5004
  23859199.3984    6141064.69949   4763214.94546                  23859198.3194
        41.2504         23.0004
  21338021.1354    1514577.02349   1171606.65248                  21338016.3804
        51.7504         39.7504
 04  7  1 18 27 30.0000000  0  8G 3G 9G14G15G18G19G21G22
  22526502.6174    2672387.08249   2073049.55147                  22526502.0944
        46.7504         33.7504
  23940948.1104    1244678.63749    965820.12546                  23940947.4704
        38.5004         22.0004
  20374108.5804   -3257987.82849  -2529501.44148                  20374104.5914
        49.2504         41.5004
  20424284.8524     784787.52349    607587.72748                  20424282.5054
        50.5004         42.0004
  23205608.8104    4275542.69549   3313692.62947                  23205605.8534
        41.2504         29.0004
  22440165.9054   -3431835.09049  -2665334.30147                  22440161.4594
        47.2504         35.2504
  23867605.4954    6185235.87549   4797634.06346                  23867601.5094
        42.5004         22.0004
  21340356.9454    1526853.12149   1181172.43848                  21340352.2004
        50.7504         40.2504
 04  7  1 18 27 45.0000000  0  8G 3G 9G14G15G18G19G21G22
  22531252.6854    2697345.55549   2092497.68847                  22531251.1684
        47.5004         34.5004
  23944506.1624    1263375.85549    980389.39546                  23944504.7564
        38.5004         21.7504
  20371892.3924   -3269632.25449  -2538575.01248                  20371888.7394
        49.2504         42.0004
  20426843.2404     798230.19949    618062.53548                  20426840.8344
        51.2504         42.0004
  23211043.8774    4304105.18049   3335949.11347                  23211041.5654
        42.5004         28.0004
  22437826.4534   -3444130.03549  -2674914.78147                  22437821.5624
        47.5004         34.2504
  23876020.2544    6229455.76249   4832091.03146                  23876017.0944
        41.5004         21.7504
  21342699.1084    1539161.31349   1190763.23048                  21342694.3914
        50.5004         39.7504
 04  7  1 18 28  0.0000000  0  8G 3G 9G14G15G18G19G21G22
  22536018.1994    2722389.69549   2112012.60547                  22536017.1764
        48.0004         34.2504
  23948089.7774    1282206.84449    995062.89546                  23948088.1664
        38.5004         21.0004
  20369700.6264   -3281151.74249  -2547551.23448                  20369696.8794
        47.0004         41.7504
  20429422.4314     811785.32449    628624.97348                  20429420.3994
        50.2504         41.5004
  23216481.8004    4332678.73049   3358214.18847                  23216478.8174
        42.5004         28.0004
  22435512.3524   -3456289.01249  -2684389.31647                  22435507.8374
        44.7504         34.0004
  23884442.7614    6273722.35949   4866584.44946                  23884440.5334
        39.0004         21.7504
  21345047.3494    1551499.71949   1200377.56648                  21345042.5844
        49.7504         39.5004
 04  7  1 18 28 15.0000000  0  8G 3G 9G14G15G18G19G21G22
  22540799.4074    2747514.07049   2131590.00847                  22540797.8674
        48.5004         34.0004
  23951697.2694    1301166.19949   1009836.36346                  23951696.7454
        38.5004         23.0004
  20367531.1844   -3292551.67249  -2556434.29748                  20367527.5264
        46.5004         41.5004
  20432022.3074     825447.64849    639270.93448                  20432020.1024
        50.7504         42.0004
  23221919.8214    4361258.36349   3380483.99647                  23221917.7544
        42.2504         27.5004
  22433223.5074   -3468317.10249  -2693761.84447                  22433219.2634
        43.0004         35.5004
  23892875.2334    6318030.43449   4901110.10546                  23892873.3714
        41.2504         23.5004
  21347400.2004    1563863.09449   1210011.35948                  21347395.1704
        51.0004         39.5004
 04  7  1 18 28 30.0000000  0  8G 3G 9G14G15G18G19G21G22
  22545596.2234    2772720.00849   2151230.97747                  22545593.7074
        48.0004         34.2504
  23955329.6724    1320255.58649   1024711.18846                  23955328.7804
        39.5004         22.5004
  20365385.1574   -3303830.21549  -2565222.76248                  20365380.9784
        49.2504         41.5004
  20434642.8584     839219.02749    650001.86748                  20434640.3094
        50.7504         42.2504
  23227359.7224    4389845.60249   3402759.75047                  23227357.9824
        40.7504         28.2504
  22430959.9084   -3480212.62949  -2703031.09447                  22430955.4594
        46.7504         35.5004
  23901314.5864    6362381.65249   4935669.42246                  23901313.4894
        39.2504         21.2504
  21349757.4614    1576253.25049   1219666.03547                  21349753.2374
        50.0004         39.2504
 04  7  1 18 28 45.0000000  0  8G 3G 9G14G15G18G19G21G22
  22550408.5264    2798011.91449   2170938.94147                  22550406.3574
        47.2504         34.0004
  23958988.5694    1339479.43449   1039690.82446                  23958987.2134
        40.5004         22.7504
  20363262.8324   -3314982.70749  -2573913.01648                  20363258.8724
        49.7504         42.0004
  20437285.0044     853104.20749    660821.48048                  20437282.8814
        49.0004         41.5004
  23232801.8234    4418445.09849   3425045.06347                  23232800.7704
        40.0004         29.0004
  22428722.5424   -3491970.79349  -2712193.30147                  22428718.3634
        47.5004         36.2504
  23909763.1014    6406780.25449   4970265.66846                  23909762.7894
        39.5004         23.2504
  21352121.4764    1588674.86349   1229345.20748                  21352116.6074
        50.0004         39.7504
 04  7  1 18 29  0.0000000  0  8G 3G 9G14G15G18G19G21G22
  22555237.2744    2823384.85249   2190710.04747                  22555235.2544
        48.0004         34.5004
  23962671.9394    1358833.03149   1054771.53546                  23962671.1384
        41.0004         24.5004
  20361163.4794   -3326013.81649  -2582508.68448                  20361159.7814
        49.2504         42.5004
  20439948.2874     867098.48849    671726.10948                  20439945.8954
        51.0004         42.0004
  23238246.0954    4447052.26249   3447336.33247                  23238243.4134
        42.5004         27.2504
  22426509.9484   -3503596.14849  -2721252.01647                  22426505.8984
        47.5004         35.5004
  23918222.2244    6451221.62549   5004895.21546                  23918218.4884
        41.5004         22.0004
  21354490.4054    1601123.18849   1239045.18848                  21354485.2694
        51.2504         39.7504
 04  7  1 18 29 15.0000000  0  8G 3G 9G14G15G18G19G21G22
  22560080.8084    2848840.00849   2210545.20747                  22560079.7204
        47.7504         34.2504
  23966378.8074    1378317.83249   1069954.46546                  23966378.8694
        40.0004         22.2504
  20359087.9184   -3336922.18749  -2591008.71148                  20359084.1934
        48.0004         42.5004
  20442632.4664     881203.49649    682717.02348                  20442629.7934
        51.2504         42.0004
  23243691.8024    4475668.63349   3469634.79747                  23243688.8324
        42.0004         28.0004
  22424322.7584   -3515087.14149  -2730206.01647                  22424319.3254
        44.2504         35.0004
  23926685.4174    6495707.01249   5039559.10946                  23926684.0824
        38.5004         21.7504
  21356864.5004    1613599.69149   1248767.13348                  21356859.8554
        51.0004         39.5004
 04  7  1 18 29 30.0000000  0  8G 3G 9G14G15G18G19G21G22
  22564940.9884    2874379.61749   2230446.18047                  22564939.7644
        48.2504         34.0004
  23970111.9824    1397936.02349   1085241.35946                  23970111.1264
        40.0004         21.7504
  20357035.6094   -3347705.33249  -2599411.15248                  20357032.1444
        45.7504         42.0004
  20445337.9014     895421.66449    693796.11748                  20445335.1804
        50.5004         42.0004
  23249139.4594    4504296.79749   3491942.42647                  23249137.0454
        42.2504         28.0004
  22422162.7974   -3526441.32049  -2739053.44547                  22422158.9294
        42.0004         34.7504
  23935160.7874    6540239.12949   5074259.40246                  23935158.1934
        41.5004         22.0004
  21359244.3514    1626106.89149   1258513.00448                  21359239.4214
        50.5004         39.7504
 04  7  1 18 29 45.0000000  0  8G 3G 9G14G15G18G19G21G22
  22569816.4564    2900000.80949   2250410.73447                  22569815.8124
        47.5004         34.0004
  23973870.3664    1417684.93849   1100630.11746                  23973868.5344
        39.7504         21.5004
  20355007.2284   -3358365.80549  -2607718.00848                  20355003.6324
        48.0004         42.0004
  20448064.7274     909750.56349    704961.49648                  20448062.1834
        51.5004         42.5004
  23254588.8014    4532934.13749   3514257.21147                  23254586.6264
        42.0004         28.7504
  22420027.7874   -3537661.11349  -2747796.14847                  22420023.6124
        44.0004         35.0004
  23943643.3474    6584815.23849   5108993.98046                  23943640.5814
        40.5004         21.7504
  21361629.8584    1638642.23849   1268280.79748                  21361624.9684
        51.2504         39.7504
 04  7  1 18 30  0.0000000  0  8G 3G 9G14G15G18G19G21G22
  22574707.7564    2925704.27349   2270439.40647                  22574706.2854
        47.5004         34.0004
  23977653.4594    1437565.46949   1116121.42246                  23977651.8214
        39.5004         21.5004
  20353002.1794   -3368902.68049  -2615928.56248                  20352998.3214
        48.7504         41.5004
  20450812.6154     924191.13749    716213.87548                  20450810.5404
        50.2504         42.0004
  23260040.1084    4561581.63349   3536579.90647                  23260038.0014
        41.5004         26.7504
  22417918.3414   -3548745.50849  -2756433.35247                  22417914.4404
        46.5004         35.2504
  23952133.9184    6629435.66849   5143763.09046                  23952131.9724
        40.7504         22.0004
  21364020.7584    1651206.65649   1278071.25048                  21364016.3444
        50.7504         39.5004
 04  7  1 18 30 15.0000000  0  8G 3G 9G14G15G18G19G21G22
  22579614.8904    2951491.61749   2290533.41447                  22579612.7354
        47.5004         33.5004
  23981461.5424    1457579.19949   1131716.52046                  23981459.9484
        40.5004         21.7504
  20351020.7704   -3379314.16849  -2624041.40248                  20351017.3934
        49.2504         42.0004
  20453582.3654     938745.25849    727554.74248                  20453579.7564
        51.0004         42.2504
  23265493.5954    4590241.20349   3558912.01647                  23265491.4564
        42.5004         27.0004
  22415835.4924   -3559692.66449  -2764963.60947                  22415830.8964
        48.0004         35.2504
  23960634.0004    6674102.36349   5178568.24246                  23960631.1844
        39.2504         22.2504
  21366417.8844    1663801.98049   1287885.77748                  21366413.2384
        51.0004         39.5004
 04  7  1 18 30 30.0000000  0  8G 3G 9G14G15G18G19G21G22
  22584537.1574    2977358.82449   2310689.66047                  22584535.3834
        47.0004         32.7504
  23985295.0724    1477722.35549   1147412.46946                  23985293.1624
        39.5004         22.2504
  20349062.6064   -3389603.92249  -2632059.38348                  20349059.2134
        49.2504         41.7504
  20456372.5624     953409.34449    738981.29348                  20456370.2394
        51.7504         42.5004
  23270948.7734    4618909.16849   3581250.67647                  23270947.3574
        41.2504         26.5004
  22413777.5564   -3570506.16049  -2773389.73047                  22413772.9974
        47.0004         35.2504
  23969140.8554    6718811.34849   5213406.35246                  23969140.2274
        36.5004         21.0004
  21368819.9064    1676424.61349   1297721.57447                  21368814.9104
        51.5004         39.2504
 04  7  1 18 30 45.0000000  0  8G 3G 9G14G15G18G19G21G22
  22589475.1324    3003308.56649   2330910.21147                  22589473.8244
        47.5004         33.0004
  23989153.3964    1497997.61749   1163211.34846                  23989152.6574
        38.7504         22.5004
  20347128.1634   -3399769.17649  -2639980.36348                  20347124.6674
        47.2504         42.0004
  20459184.6034     968186.14849    750495.66848                  20459182.0814
        51.7504         42.0004
  23276406.3364    4647588.49649   3603598.17247                  23276404.2844
        42.0004         26.0004
  22411745.9424   -3581183.10949  -2781709.43747                  22411741.5464
        44.0004         35.0004
  23977658.2614    6763565.56649   5248279.68846                  23977656.3924
        38.5004         21.0004
  21371227.3024    1689077.38749   1307580.87148                  21371222.6974
        51.0004         39.7504
 04  7  1 18 31  0.0000000  0  8G 3G 9G14G15G18G19G21G22
  22594428.9224    3029338.49649   2351193.25047                  22594427.0824
        47.7504         33.2504
  23993036.4184    1518402.87149   1179111.53946                  23993035.8384
        39.0004         22.2504
  20345217.2574   -3409811.89849  -2647805.85948                  20345213.7344
        46.7504         41.7504
  20462017.5894     983073.78149    762096.42248                  20462014.9444
        51.5004         41.7504
  23281866.5734    4676277.14149   3625952.93446                  23281863.4224
        43.5004         25.2504
  22409740.3404   -3591725.35249  -2789924.16847                  22409735.2234
        43.0004         35.0004
  23986182.5194    6808362.78549   5283186.49646                  23986181.8054
        39.0004         21.7504
  21373640.2694    1701758.34849   1317462.13347                  21373635.8854
        51.0004         39.2504
 04  7  1 18 31 15.0000000  0  8G 3G 9G14G15G18G19G21G22
  22599397.5794    3055451.66849   2371541.16847                  22599396.8724
        47.7504         33.5004
  23996944.4554    1538941.32449   1195115.44946                  23996944.1694
        39.2504         22.2504
  20343330.1394   -3419728.80149  -2655533.31648                  20343326.4954
        48.0004         42.0004
  20464872.3154     998075.59449    773786.14848                  20464869.9354
        51.5004         42.2504
  23287328.3384    4704978.35949   3648317.52047                  23287325.4394
        43.7504         27.0004
  22407759.9334   -3602129.62949  -2798031.40647                  22407755.7864
        44.5004         35.5004
  23994716.1344    6853206.25049   5318129.48046                  23994714.9674
        41.2504         22.2504
  21376059.5494    1714470.75849   1327367.90248                  21376055.3144
        51.0004         40.0004
 04  7  1 18 31 30.0000000  0  8G 3G 9G14G15G18G19G21G22
  22604381.9704    3081644.97349   2391951.52347                  22604380.9334
        46.0004         32.7504
  24000877.5834    1559609.86749   1211220.80146                  24000876.1784
        39.5004         22.0004
  20341466.8944   -3429522.80949  -2663165.00848                  20341462.8634
        49.5004         42.0004
  20467748.2384    1013188.78549    785562.66048                  20467745.9574
        51.5004         42.0004
  23292791.5234    4733689.47349   3670689.81347                  23292789.2154
        45.0004         28.0004
  22405805.5984   -3612398.82049  -2806033.37947                  22405801.7414
        46.5004         35.0004
  24003258.6104    6898093.24649   5353106.24646                  24003257.2814
        40.5004         21.7504
  21378483.9744    1727211.75849   1337295.94548                  21378479.3264
        50.7504         39.5004
 04  7  1 18 31 45.0000000  0  8G 3G 9G14G15G18G19G21G22
  22609380.5434    3107914.76649   2412421.46947                  22609380.0754
        46.7504         33.5004
  24004835.8764    1580405.38749   1227425.09046                  24004834.1834
        39.5004         23.0004
  20339625.4194   -3439197.10949  -2670703.41448                  20339621.8214
        50.5004         41.5004
  20470644.8634    1028410.25449    797423.54748                  20470642.8734
        51.0004         42.0004
  23298256.2654    4762407.21149   3693067.24647                  23298253.9874
        43.0004         28.0004
  22403876.6244   -3622535.94149  -2813932.43447                  22403872.7204
        46.2504         35.2504
  24011807.1024    6943020.37549   5388114.36746                  24011805.9544
        39.5004         21.7504
  21380913.5334    1739978.19149   1347243.80947                  21380908.6784
        50.7504         39.0004
 04  7  1 18 32  0.0000000  0  8G 3G 9G14G15G18G19G21G22
  22614395.7614    3134267.13749   2432955.76647                  22614394.2874
        47.2504         32.5004
  24008818.1714    1601333.77749   1243732.94546                  24008816.4644
        40.7504         22.7504
  20337808.3094   -3448745.48449  -2678143.71548                  20337804.9394
        50.0004         41.5004
  20473563.1884    1043746.14849    809373.59048                  20473561.1154
        51.5004         42.2504
  23303723.7024    4791137.95749   3715454.78547                  23303721.9204
        42.7504         28.7504
  22401974.1744   -3632534.72749  -2821723.69947                  22401970.2534
        47.7504         35.0004
  24020364.9994    6987993.34049   5423158.13346                  24020364.9114
        39.5004         22.5004
  21383348.9734    1752776.27749   1357216.34047                  21383343.9994
        50.0004         39.0004
 04  7  1 18 32 15.0000000  0  8G 3G 9G14G15G18G19G21G22
  22619426.4394    3160700.93449   2453553.48447                  22619424.7694
        47.0004         32.2504
  24012825.4534    1622394.14149   1260143.61346                  24012824.1694
        39.0004         24.7504
  20336015.5294   -3458168.86749  -2685486.60548                  20336011.6434
        49.2504         41.7504
  20476502.9774    1059195.66049    821412.15248                  20476501.0434
        51.2504         42.0004
  23309193.2904    4819880.86349   3737851.81647                  23309191.6584
        43.7504         28.0004
  22400097.2074   -3642396.05149  -2829407.84847                  22400093.4344
        47.5004         35.5004
  24028931.4054    7033011.41449   5458237.05946                  24028931.3564
        37.0004         20.0004
  21385789.9064    1765605.14549   1367212.85547                  21385785.5624
        50.7504         39.2504
 04  7  1 18 32 30.0000000  0  8G 3G 9G14G15G18G19G21G22
  22624471.8024    3187218.59049   2474216.59447                  22624471.1764
        47.0004         32.5004
  24016858.7184    1643589.03149   1276659.06346                  24016857.9354
        40.5004         24.0004
  20334246.3844   -3467464.55149  -2692730.00048                  20334242.5944
        50.7504         42.0004
  20479465.1804    1074761.53149    833541.39148                  20479462.7744
        52.0004         42.0004
  23314666.2694    4848638.60549   3760260.43447                  23314663.7084
        43.5004         27.5004
  22398247.8014   -3652117.12549  -2836982.72347                  22398243.7384
        48.7504         35.5004
  24037507.6124    7078076.74249   5493352.79346                  24037507.6234
        36.7504         21.0004
  21388237.5714    1778467.52749   1377235.48447                  21388233.4714
        51.0004         39.0004
 04  7  1 18 32 45.0000000  0  8G 3G 9G14G15G18G19G21G22
  22629532.8934    3213813.90649   2494940.19547                  22629531.9944
        46.7504         32.0004
  24020916.8604    1664912.38749   1293274.65646                  24020915.4884
        40.2504         24.2504
  20332500.8384   -3476638.36349  -2699878.41848                  20332497.0384
        49.5004         42.0004
  20482448.3334    1090438.13749    845756.91048                  20482446.1414
        51.2504         42.5004
  23320139.8444    4877405.37549   3782676.07847                  23320137.1084
        43.5004         27.7504
  22396423.3674   -3661703.64549  -2844452.73847                  22396419.2244
        48.2504         34.7504
  24046091.6654    7123183.89849   5528501.14146                  24046090.8884
        41.0004         25.0004
  21390690.4204    1791357.68049   1387279.75847                  21390686.4004
        51.0004         38.7504
 04  7  1 18 33  0.0000000  0  8G 3G 9G14G15G18G19G21G22
  22634609.6334    3240489.09049   2515726.03947                  22634608.3514
        47.0004         32.7504
  24024998.7244    1686366.50049   1309992.12547                  24024997.9954
        38.5004         26.0004
  20330778.5324   -3485687.95749  -2706930.04348                  20330774.8954
        49.0004         41.7504
  20485453.3884    1106227.91449    858060.61748                  20485450.9634
        51.5004         42.2504
  23325616.3744    4906183.68049   3805100.71547                  23325613.4414
        41.5004         26.7504
  22394624.9534   -3671153.14849  -2851816.01247                  22394621.2784
        48.0004         35.2504
  24054683.3984    7168334.94549   5563683.74646                  24054683.0004
        40.5004         23.0004
  21393148.9534    1804277.98849   1397347.52747                  21393144.8194
        50.0004         38.7504
 04  7  1 18 33 15.0000000  0  8G 3G 9G14G15G18G19G21G22
  22639701.1864    3267246.53549   2536575.97347                  22639699.6844
        47.0004         32.5004
  24029106.5544    1707953.87149   1326813.39546                  24029105.7564
        39.7504         25.0004
  20329080.6454   -3494610.81249  -2713882.91048                  20329076.9284
        49.2504         41.2504
  20488479.8624    1122133.42249    870454.50848                  20488477.5214
        51.0004         42.2504
  23331095.0714    4934976.18849   3827536.39147                  23331092.7254
        43.0004         25.7504
  22392853.6904   -3680462.98849  -2859070.44147                  22392849.3224
        47.2504         34.5004
  24063284.9744    7213532.43849   5598902.50046                  24063283.8674
        42.5004         22.2504
  21395614.0284    1817231.18849   1407440.93847                  21395609.5374
        50.2504         38.2504
 04  7  1 18 33 30.0000000  0  8G 3G 9G14G15G18G19G21G22
  22644807.3844    3294081.61749   2557486.41447                  22644806.1504
        46.0004         32.0004
  24033239.3854    1729670.10949   1343735.12947                  24033238.2704
        40.5004         25.7504
  20327405.9704   -3503411.19549  -2720740.35248                  20327402.1924
        49.7504         42.0004
  20491527.7314    1138150.39149    882935.26248                  20491525.3024
        51.0004         42.5004
  23336576.1474    4963778.57449   3849979.80947                  23336572.7444
        43.5004         28.0004
  22391107.6664   -3689637.52749  -2866219.42247                  22391103.3944
        47.5004         34.7504
  24071892.5404    7258771.93849   5634154.00046                  24071892.4124
        40.0004         22.5004
  21398084.4154    1830212.86349   1417556.51247                  21398079.8344
        49.7504         38.5004
 04  7  1 18 33 45.0000000  0  8G 3G 9G14G15G18G19G21G22
  22649929.4024    3320996.84049   2578459.29747                  22649928.0834
        46.0004         31.7504
  24037396.8884    1751517.78549   1360759.27046                  24037395.6174
        40.5004         24.5004
  20325754.9844   -3512086.28949  -2727500.16448                  20325751.1284
        50.0004         42.2504
  20494597.4604    1154281.66449    895505.09448                  20494595.0724
        51.7504         42.0004
  23342059.5894    4992593.71549   3872433.14847                  23342056.6924
        44.0004         26.5004
  22389387.6584   -3698673.75449  -2873260.64847                  22389383.9304
        47.5004         35.5004
  24080510.4264    7304056.30949   5669440.43046                  24080509.8724
        39.7504         22.2504
  21400560.4504    1843225.82849   1427696.48047                  21400556.3554
        49.5004         39.0004
 04  7  1 18 34  0.0000000  0  8G 3G 9G14G15G18G19G21G22
  22655065.3554    3347988.82049   2599491.99647                  22655064.6164
        46.7504         31.5004
  24041578.7774    1773493.71949   1377883.37946                  24041577.2084
        41.0004         23.5004
  20324127.3644   -3520639.27349  -2734164.82048                  20324123.9524
        49.5004         42.0004
  20497688.1134    1170524.13749    908161.56348                  20497685.8814
        51.2504         42.0004
  23347543.7434    5021418.54749   3894894.03547                  23347542.6544
        43.0004         26.5004
  22387694.1364   -3707574.77049  -2880196.52347                  22387690.2074
        47.5004         35.5004
  24089135.8434    7349382.30949   5704759.29746                  24089135.0444
        40.0004         21.7504
  21403042.5884    1856266.97349   1437858.40647                  21403037.9964
        51.0004         39.0004
 04  7  1 18 34 15.0000000  0  8G 3G 9G14G15G18G19G21G22
  22660217.4034    3375058.93049   2620585.59447                  22660215.8494
        45.2504         31.5004
  24045784.6464    1795599.40249   1395108.57846                  24045784.5594
        40.0004         24.2504
  20322523.5674   -3529068.45349  -2740733.01648                  20322519.7104
        49.2504         42.0004
  20500800.4704    1186879.49649    920906.00048                  20500798.3544
        51.0004         42.0004
  23353032.3814    5050254.84049   3917363.85247                  23353029.5464
        43.5004         26.0004
  22386027.1584   -3716338.98449  -2887025.77747                  22386022.6214
        48.0004         35.0004
  24097769.9904    7394751.23049   5740111.63746                  24097768.4074
        42.7504         25.2504
  21405529.2714    1869338.00049   1448043.62147                  21405525.1184
        49.2504         39.0004
 04  7  1 18 34 30.0000000  0  8G 3G 9G14G15G18G19G21G22
  22665383.6584    3402208.37149   2641740.98847                  22665381.9674
        45.5004         32.0004
  24050016.7924    1817836.01649   1412435.77047                  24050016.3284
        40.0004         25.7504
  20320943.2954   -3537372.54349  -2747203.72348                  20320939.6494
        50.0004         42.0004
  20503934.6944    1203349.16049    933739.48848                  20503932.0934
        52.0004         42.2504
  23358522.5344    5079104.03149   3939843.72747                  23358519.1704
        43.7504         26.5004
  22384385.0324   -3724964.89149  -2893747.26247                  22384380.7744
        48.2504         35.0004
  24106410.6914    7440164.22349   5775498.32846                  24106410.2784
        41.5004         22.2504
  21408022.9544    1882440.33649   1458253.20747                  21408018.5264
        49.5004         38.7504
 04  7  1 18 34 45.0000000  0  8G 3G 9G14G15G18G19G21G22
  22670565.4814    3429437.55949   2662958.50047                  22670563.9704
        47.0004         33.0004
  24054273.4004    1840204.20349   1429865.48047                  24054273.2784
        41.0004         26.0004
  20319386.6674   -3545550.83249  -2753576.42248                  20319383.4544
        49.5004         42.2504
  20507090.5804    1219933.92249    946662.67248                  20507088.3854
        51.7504         42.0004
  23364014.0824    5107966.84449   3962334.20747                  23364011.5394
        43.0004         26.5004
  22382770.4544   -3733451.77049  -2900360.41047                  22382765.7204
        48.2504         35.0004
  24115061.5024    7485621.90649   5810919.84446                  24115060.2964
        42.2504         21.7504
  21410522.2004    1895574.78949   1468487.85547                  21410517.4734
        49.7504         39.0004
 04  7  1 18 35  0.0000000  0  8G 3G 9G14G15G18G19G21G22
  22675761.7314    3456746.12949   2684237.87547                  22675759.7094
        46.7504         33.0004
  24058555.6844    1862703.68849   1447397.51646                  24058554.4344
        39.7504         25.5004
  20317854.4744   -3553603.33249  -2759851.09048                  20317850.9404
        48.2504         41.7504
  20510268.6834    1236633.75049    959675.53148                  20510266.6604
        52.0004         42.0004
  23369509.4994    5136843.27349   3984835.31647                  23369506.1524
        43.0004         27.2504
  22381181.4694   -3741799.46549  -2906865.10547                  22381177.0344
        47.5004         35.2504
  24123720.4014    7531124.17249   5846376.04746                  24123719.7254
        41.5004         22.0004
  21413027.7884    1908741.30549   1478747.46947                  21413023.2734
        49.5004         38.7504
 04  7  1 18 35 15.0000000  0  9G 3G 9G14G15G18G19G21G22G25
  22680973.9444    3484132.58249   2705577.95747                  22680971.2834
        45.5004         33.2504
  24062861.5854    1885333.05549   1465030.77347                  24062861.0564
        42.0004         26.5004
  20316345.7474   -3561531.41449  -2766028.81248                  20316342.3264
        49.5004         41.5004
  20513467.9394    1253447.50849    972777.15248                  20513466.0584
        51.5004         41.7504
  23375006.0944    5165732.14849   4007346.10947                  23375003.9814
        43.0004         27.0004
  22379619.6534   -3750009.30949  -2913262.38347                  22379615.0804
        48.0004         35.5004
  24132387.1774    7576669.83249   5881866.10546                  24132386.6464
        39.7504         21.2504
  21415539.7034    1921938.62149   1489031.09047                  21415534.9834
        49.0004         39.2504
  24249973.2024    -106722.01658
        29.0004
 04  7  1 18 35 30.0000000  0  9G 3G 9G14G15G18G19G21G22G25
  22686200.6934    3511598.53149   2726979.98847                  22686198.0914
        46.0004         32.5004
  24067192.6634    1908094.13349   1482766.67647                  24067192.0404
        40.5004         26.0004
  20314861.5184   -3569333.18749  -2772108.11348                  20314857.9044
        48.2504         41.5004
  20516689.6384    1270377.07449    985969.01248                  20516687.3884
        50.5004         41.2504
  23380506.1714    5194635.51249   4029868.18047                  23380504.0844
        42.0004         25.7504
  22378083.4894   -3758079.33649  -2919550.72347                  22378079.8234
        47.2504         35.7504
  24141063.1484    7622260.73449   5917391.39846                  24141063.0824
        41.7504         22.7504
  21418056.8624    1935168.67649   1499340.21547                  21418052.3314
        48.7504         38.2504
  24239467.5614    -161934.32058
        33.0004
 04  7  1 18 35 45.0000000  0  9G 3G 9G14G15G18G19G21G22G25
  22691442.1114    3539144.26249   2748444.17247                  22691439.4144
        46.5004         32.5004
  24071549.2904    1930987.31349   1500605.49646                  24071548.1454
        41.5004         25.0004
  20313400.8774   -3577008.13749  -2778088.59048                  20313397.3744
        49.5004         41.5004
  20519933.4994    1287423.06349    999251.58248                  20519931.0784
        51.2504         41.7504
  23386010.3544    5223553.84049   4052401.87547                  23386007.6154
        43.5004         26.7504
  22376574.4164   -3766008.91449  -2925729.63347                  22376570.7394
        48.2504         36.5004
  24149747.8724    7667897.05149   5952952.08646                  24149747.7564
        41.7504         22.5004
  21420580.7844    1948432.21149   1509675.43447                  21420576.0564
        49.5004         38.2504
  24228959.9454    -217151.03548
        32.7504
 04  7  1 18 36  0.0000000  0  9G 3G 9G14G15G18G19G21G22G25
  22696698.3414    3566765.27349   2769967.02747                  22696696.8744
        46.7504         33.5004
  24075929.3314    1954008.14149   1518543.78947                  24075928.4024
        41.5004         26.0004
  20311963.8514   -3584560.53949  -2783973.57448                  20311960.0034
        49.7504         41.5004
  20523198.4224    1304581.22749   1012621.57048                  20523196.3004
        52.2504         41.5004
  23391514.9004    5252482.93449   4074944.03547                  23391512.7474
        43.0004         26.7504
  22375091.7164   -3773802.39549  -2931802.48447                  22375087.7574
        47.2504         36.2504
  24158440.3134    7713574.68049   5988544.97346                  24158440.2544
        43.5004         25.2504
  21423110.5004    1961724.87949   1520033.35547                  21423105.7044
        50.2504         39.0004
  24218450.8634    -272375.92648
        34.5004
 04  7  1 18 36 15.0000000  0  9G 3G 9G14G15G18G19G21G22G25
  22701969.4464    3594464.74249   2791551.01647                  22701967.3234
        46.2504         33.0004
  24080334.9344    1977160.09849   1536584.27047                  24080334.4354
        41.5004         25.7504
  20310550.3884   -3591986.92649  -2789760.37148                  20310546.9564
        49.5004         41.5004
  20526485.5774    1321855.16049   1026081.77748                  20526483.2884
        51.2504         41.7504
  23397023.0254    5281426.23849   4097497.25047                  23397019.2434
        43.2504         26.0004
  22373635.4894   -3781456.07849  -2937766.41047                  22373631.5154
        48.5004         36.2504
  24167140.1964    7759296.88749   6024172.57046                  24167140.6534
        42.0004         22.5004
  21425646.0654    1975050.23449   1530416.73847                  21425641.6404
        49.5004         38.7504
  24207941.7664    -327605.16848
        33.0004
 04  7  1 18 36 30.0000000  0  9G 3G 9G14G15G18G19G21G22G25
  22707254.2044    3622240.59449   2813194.51647                  22707252.9054
        46.0004         32.2504
  24084764.6474    2000441.02349   1554725.22346                  24084765.6944
        38.7504         25.5004
  20309160.9544   -3599289.17649  -2795450.43048                  20309157.3754
        49.0004         41.5004
  20529794.2844    1339243.05949   1039630.78948                  20529792.0284
        51.7504         41.5004
  23402532.6844    5310382.18449   4120060.30547                  23402530.0084
        41.2504         27.0004
  22372205.4564   -3788971.82849  -2943622.84447                  22372200.8674
        49.0004         36.7504
  24175849.5454    7805061.59849   6059833.30546                  24175848.6754
        41.5004         22.2504
  21428187.7174    1988406.35549   1540824.09447                  21428182.9454
        49.5004         39.0004
  24197429.6024    -382840.11748
        30.7504
 04  7  1 18 36 45.0000000  0  9G 3G 9G14G15G18G19G21G22G25
  22712555.1834    3650095.28949   2834899.46947                  22712553.2124
        46.7504         32.7504
  24089220.2894    2023853.46949   1572968.64547                  24089221.1754
        39.7504         26.0004
  20307795.0814   -3606464.56249  -2801041.64548                  20307792.0704
        49.0004         41.5004
  20533125.6714    1356747.57049   1053270.67248                  20533122.8294
        51.2504         42.0004
  23408045.7834    5339353.28949   4142635.18047                  23408043.6064
        43.0004         28.0004
  22370801.5714   -3796346.96949  -2949369.69947                  22370797.1794
        48.0004         37.0004
  24184566.7634    7850871.28949   6095529.09046                  24184565.7974
        41.7504         22.2504
  21430735.8124    2001796.03949   1551257.60947                  21430731.6974
        50.0004         38.7504
  24186919.3344    -438077.73048
        32.0004
 04  7  1 18 37  0.0000000  0  9G 3G 9G14G15G18G19G21G22G25
  22717870.2074    3678026.93449   2856664.36347                  22717868.6484
        46.5004         32.0004
  24093700.1084    2047395.71949   1591313.25447                  24093700.9054
        40.0004         27.0004
  20306453.6734   -3613514.75049  -2806535.28948                  20306450.3164
        48.0004         41.5004
  20536478.3564    1374367.22349   1067000.26248                  20536476.4384
        51.5004         41.7504
  23413561.4864    5368338.25449   4165220.84047                  23413559.5294
        42.0004         28.0004
  22369424.4014   -3803582.96549  -2955008.14547                  22369421.2544
        46.5004         36.5004
  24193292.5774    7896724.14149   6131258.48846                  24193291.3874
        41.2504         19.2504
  21433289.8864    2015217.76649   1561716.08647                  21433285.2544
        49.5004         38.5004
  24176407.3234    -493319.22357
        26.5004
 04  7  1 18 37 15.0000000  0  8G 3G 9G14G15G18G19G21G22
  22723199.7744    3706033.31349   2878487.50847                  22723198.1504
        46.7504         32.5004
  24098205.5954    2071065.78149   1609757.42646                  24098204.9484
        41.7504         25.2504
  20305135.8284   -3620441.75849  -2811932.95348                  20305132.3624
        48.5004         41.5004
  20539853.0734    1392100.09849   1080818.07448                  20539850.5154
        52.0004         41.7504
  23419079.6264    5397335.19549   4187815.83647                  23419077.1134
        41.5004         27.7504
  22368073.7954   -3810681.75449  -2960539.67647                  22368069.8704
        45.7504         36.0004
  24202025.4074    7942618.08249   6167019.93446                  24202024.8614
        42.0004         21.0004
  21435849.5354    2028669.64549   1572198.06647                  21435844.6944
        50.0004         39.2504
 04  7  1 18 37 30.0000000  0  8G 3G 9G14G15G18G19G21G22
  22728543.4464    3734113.93849   2900368.47747                  22728541.8994
        45.7504         32.5004
  24102733.6654    2094863.27349   1628300.88747                  24102732.8774
        40.0004         26.2504
  20303840.9254   -3627245.78149  -2817234.78548                  20303837.4214
        47.7504         42.0004
  20543249.0554    1409946.00849   1094723.98448                  20543246.3304
        51.5004         42.0004
  23424599.1164    5426343.83249   4210419.93847                  23424597.9584
        42.7504         28.0004
  22366749.3634   -3817643.39549  -2965964.33247                  22366745.2374
        46.0004         36.5004
  24210766.4744    7988553.47749   6202813.65646                  24210766.8494
        41.0004         21.0004
  21438415.1504    2042151.41049   1582703.32047                  21438410.7544
        49.0004         39.2504
 04  7  1 18 37 45.0000000  0  9G 3G 9G14G15G18G19G21G22G25
  22733900.9164    3762266.48849   2922305.51647                  22733899.2354
        46.5004         32.7504
  24107286.3054    2118785.94149   1646941.90246                  24107285.2944
        41.0004         24.7504
  20302569.2134   -3633928.89149  -2822442.40648                  20302565.8204
        47.5004         42.0004
  20546665.8274    1427902.94149   1108716.39848                  20546663.5994
        51.0004         42.0004
  23430121.5054    5455362.34049   4233031.75047                  23430119.5664
        44.0004         26.7504
  22365450.2564   -3824470.03949  -2971283.80547                  22365446.2064
        45.2504         36.0004
  24219515.3294    8034527.89149   6238637.81646                  24219516.0094
        42.5004         21.2504
  21440985.9084    2055661.12949   1593230.37147                  21440981.8804
        50.0004         39.2504
  24144864.9074     -42735.87158
        31.5004
 04  7  1 18 38  0.0000000  0  9G 3G 9G14G15G18G19G21G22G25
  22739273.5854    3790500.24249   2944305.82847                  22739272.3634
        46.5004         32.7504
  24111863.4964    2142843.12949   1665687.77346                  24111862.9674
        39.5004         24.0004
  20301322.3554   -3640481.62149  -2827548.43048                  20301318.8004
        46.5004         41.7504
  20550105.8714    1445980.39849   1122802.71548                  20550103.5404
        51.2504         41.0004
  23435647.5614    5484400.21949   4255658.65247                  23435645.0394
        43.0004         26.5004
  22364178.7314   -3831152.08649  -2976490.60247                  22364174.1814
        45.2504         35.7504
  24228273.3724    8080550.60249   6274499.57446                  24228273.2944
        41.2504         21.7504
  21443563.7974    2069208.34049   1603786.64547                  21443559.5014
        49.2504         39.0004
  24134349.2554     -97991.36358
        35.0004
 04  7  1 18 38 15.0000000  0  9G 3G 9G14G15G18G19G21G22G25
  22744660.4064    3818808.72749   2966364.36747                  22744658.8804
        46.5004         33.0004
  24116467.0104    2167028.60549   1684533.56646                  24116465.6014
        40.7504         22.5004
  20300098.9114   -3646910.20349  -2832557.70748                  20300095.3494
        46.2504         42.0004
  20553567.5124    1464172.21949   1136978.14848                  20553565.3994
        50.7504         41.0004
  23441175.4824    5513451.40249   4278295.90246                  23441172.8144
        43.5004         25.5004
  22362933.1414   -3837695.73449  -2981589.55147                  22362928.5614
        44.5004         35.7504
  24237039.2964    8126615.14849   6310393.96546                  24237038.6804
        41.0004         21.0004
  21446147.5944    2082786.90649   1614367.35247                  21446143.2524
        49.5004         38.5004
  24123835.1744    -153249.64848
        35.5004
 04  7  1 18 38 30.0000000  0  9G 3G 9G14G15G18G19G21G22G25
  22750061.6684    3847193.09049   2988482.02347                  22750060.6014
        46.5004         32.0004
  24121093.5614    2191343.52349   1703480.23046                  24121092.0654
        40.0004         22.5004
  20298899.5564   -3653213.25849  -2837469.17248                  20298896.1764
        46.5004         42.0004
  20557051.5974    1482479.82849   1151243.80948                  20557049.3804
        51.2504         41.2504
  23446707.0784    5542517.24249   4300944.60547                  23446704.4314
        44.7504         29.0004
  22361715.1134   -3844099.48449  -2986579.49247                  22361710.4534
        44.0004         36.7504
  24245813.5204    8172722.90649   6346321.96546                  24245813.3314
        41.0004         21.0004
  21448737.9204    2096398.19149   1624973.53947                  21448733.5234
        49.0004         38.7504
  24113317.9354    -208508.77048   -477733.60556                  24113318.0814
        35.0004         15.5004
 04  7  1 18 38 45.0000000  0  9G 3G 9G14G15G18G19G21G22G25
  22755476.5734    3875650.28149   3010656.44947                  22755475.5014
        46.2504         32.0004
  24125743.7954    2215785.03549   1722525.55146                  24125743.4614
        39.5004         23.5004
  20297723.3644   -3659393.55949  -2842284.98848                  20297719.9554
        46.5004         41.5004
  20560556.9404    1500900.68849   1165597.71948                  20560554.5794
        51.7504         41.5004
  23452240.4364    5571595.13749   4323602.67247                  23452237.9674
        44.5004         27.7504
  22360522.6084   -3850366.05149  -2991462.54347                  22360518.2154
        44.2504         36.0004
  24254594.9474    8218871.19149   6382281.60546                  24254594.7784
        41.5004         21.2504
  21451333.8284    2110039.65649   1635603.23447                  21451329.2614
        50.2504         38.7504
  24102801.7214    -263771.04348   -520795.02746                  24102801.6164
        33.5004         15.5004
 04  7  1 18 39  0.0000000  0  9G 3G 9G14G15G18G19G21G22G25
  22760905.8554    3904180.69149   3032887.91447                  22760904.9334
        46.2504         31.7504
  24130419.7844    2240353.60949   1741669.86746                  24130418.9314
        40.5004         23.5004
  20296570.9604   -3665450.50449  -2847004.68048                  20296567.5724
        47.2504         41.7504
  20564084.2134    1519435.30149   1180040.26248                  20564081.5284
        51.5004         41.0004
  23457776.2774    5600685.74249   4346270.65647                  23457773.9064
        44.7504         26.5004
  22359356.1614   -3856494.78549  -2996238.18047                  22359352.0924
        43.5004         36.0004
  24263384.8074    8265060.10549   6418272.89546                  24263383.9484
        41.5004         20.5004
  21453935.7554    2123711.90249   1646256.93047                  21453931.2734
        50.2504         39.0004
  24092284.6444    -319035.46548   -563857.95346                  24092285.2404
        33.7504         14.7504
 04  7  1 18 39 15.0000000  0  9G 3G 9G14G15G18G19G21G22G25
  22766348.5974    3932783.66449   3055175.91847                  22766347.4384
        45.7504         32.2504
  24135119.5704    2265048.57849   1760912.71146                  24135117.9964
        41.0004         22.5004
  20295441.9024   -3671384.50449  -2851628.56648                  20295437.7314
        46.7504         41.7504
  20567632.3134    1538083.37549   1194571.22348                  20567630.4164
        51.5004         41.0004
  23463314.1564    5629788.67249   4368948.26247                  23463311.1974
        43.2504         28.0004
  22358215.5924   -3862486.06649  -3000906.71947                  22358211.8094
        44.0004         36.0004
  24272181.9794    8311289.55149   6454295.81646                  24272180.8524
        41.0004         19.2504
  21456543.0214    2137414.57049   1656934.32847                  21456538.9044
        49.7504         38.5004
  24081767.5244    -374301.86348   -606922.70746                  24081768.6424
        33.0004         14.7504
 04  7  1 18 39 30.0000000  0  9G 3G 9G14G15G18G19G21G22G25
  22771807.1654    3961464.12549   3077524.30547                  22771805.3144
        46.0004         33.0004
  24139843.5354    2289875.06649   1780257.99646                  24139842.4614
        41.0004         22.5004
  20294336.7504   -3677190.49649  -2856152.71548                  20294333.0884
        47.2504         41.7504
  20571203.8254    1556850.05949   1209194.60548                  20571201.5304
        51.0004         41.7504
  23468855.5444    5658909.22749   4391639.60247                  23468853.0154
        41.7504         27.2504
  22357103.2184   -3868334.61349  -3005464.03947                  22357099.3864
        44.5004         36.5004
  24280987.8914    8357564.37549   6490354.01246                  24280987.0094
        41.0004         18.2504
  21459157.3874    2151152.95349   1667639.55947                  21459153.2024
        49.2504         39.2504
  24071250.9664    -429564.68748   -649984.48046                  24071251.8074
        35.5004         14.7504
 04  7  1 18 39 45.0000000  0  9G 3G 9G14G15G18G19G21G22G25
  22777278.2734    3990218.43049   3099930.23047                  22777277.7894
        45.5004         33.0004
  24144591.7804    2314829.60549   1799703.04746                  24144591.2994
        39.7504         22.0004
  20293255.9064   -3682871.77349  -2860579.68448                  20293251.9014
        46.2504         41.7504
  20574796.8364    1575732.14549   1223907.91048                  20574794.5584
        51.5004         41.7504
  23474398.5254    5688044.14549   4414342.11347                  23474397.5444
        40.2504         27.5004
  22356016.7354   -3874043.78149  -3009912.74647                  22356012.9544
        45.0004         37.2504
  24289801.3704    8403881.22749   6526445.02746                  24289801.0474
        40.7504         19.5004
  21461778.4034    2164923.68049   1678369.99248                  21461773.6624
        50.5004         39.5004
  24060736.5524    -484826.89849   -693045.87546                  24060735.1354
        36.5004         14.7504
 04  7  1 18 40  0.0000000  0  9G 3G 9G14G15G18G19G21G22G25
  22782763.7914    4019044.62549   3122392.18047                  22782762.7444
        44.5004         32.0004
  24149364.0814    2339910.32049   1819246.43446                  24149363.6404
        40.2504         22.2504
  20292197.4364   -3688430.01249  -2864910.78148                  20292194.1504
        47.2504         41.7504
  20578411.5514    1594727.80949   1238709.72748                  20578409.5164
        51.2504         41.5004
  23479945.9684    5717191.82449   4437054.54347                  23479943.7574
        41.0004         26.0004
  22354956.8614   -3879615.27049  -3014254.16047                  22354952.5514
        45.0004         37.0004
  24298623.0724    8450238.35949   6562567.35546                  24298622.3454
        39.2504         19.0004
  21464404.2554    2178725.12549   1689124.36348                  21464399.9364
        50.0004         40.0004
  24050219.5724    -540089.82448   -736107.78546                  24050219.0314
        34.7504         17.7504
 04  7  1 18 40 15.0000000  0  9G 3G 9G14G15G18G19G21G22G25
  22788262.5764    4047943.38349   3144910.67647                  22788262.3764
        44.7504         31.5004
  24154160.9764    2365118.05149   1838888.80146                  24154160.9884
        36.5004         21.7504
  20291163.4904   -3693864.44549  -2869145.39848                  20291159.9934
        47.5004         41.7504
  20582048.1344    1613838.03949   1253600.80948                  20582045.7174
        50.7504         40.7504
  23485495.9584    5746353.20349   4459777.66047                  23485493.4264
        42.0004         29.0004
  22353923.0874   -3885048.10949  -3018487.55547                  22353918.7854
        45.5004         37.2504
  24307452.5684    8496636.49649   6598721.66846                  24307452.3594
        39.0004         20.5004
  21467036.8094    2192558.25849   1699903.42647                  21467032.6754
        50.0004         39.0004
  24039703.5234    -595352.15249   -779169.27746                  24039703.1724
        36.7504         17.7504
 04  7  1 18 40 30.0000000  0  9G 3G 9G14G15G18G19G21G22G25
  22793775.6974    4076913.23849   3167484.57847                  22793774.4984
        45.2504         31.5004
  24158982.2734    2390451.28149   1858628.96946                  24158981.1814
        38.7504         21.0004
  20290153.4054   -3699176.31249  -2873284.50848                  20290149.5254
        47.0004         42.0004
  20585706.3734    1633061.66849   1268580.25448                  20585704.0514
        51.5004         41.2504
  23491047.9184    5775527.14149   4482510.56647                  23491045.7014
        44.0004         29.2504
  22352915.0594   -3890343.49249  -3022613.84047                  22352911.1044
        45.2504         36.5004
  24316288.6464    8543074.03149   6634906.65246                  24316289.5004
        38.7504         19.5004
  21469674.7854    2206421.91449   1710706.28548                  21469670.6734
        50.0004         40.0004
  24029187.5564    -650614.48448   -822230.73446                  24029186.0624
        33.7504         16.2504
 04  7  1 18 40 45.0000000  0  9G 3G 9G14G15G18G19G21G22G25
  22799302.5004    4105953.89149   3190113.64147                  22799300.8474
        45.7504         31.2504
  24163826.9664    2415909.87949   1878466.82046                  24163825.1224
        38.5004         19.5004
  20289165.7544   -3704365.59449  -2877328.10248                  20289161.8824
        46.7504         42.0004
  20589385.9964    1652398.81349   1283648.14848                  20589383.7104
        51.2504         41.0004
  23496601.7584    5804713.78549   4505253.41047                  23496599.6174
        45.2504         28.2504
  22351933.2854   -3895501.35249  -3026632.96147                  22351929.5104
        45.2504         37.5004
  24325133.7014    8589551.19949   6671122.50446                  24325134.3114
        41.0004         19.5004
  21472319.1694    2220316.12949   1721532.93848                  21472314.6114
        50.2504         40.0004
  24018671.6694    -705876.50049   -865291.97746                  24018670.6134
        37.0004         17.7504
 04  7  1 18 41  0.0000000  0 10G 3G 9G14G15G18G19G21G22G25G11
  22804842.3724    4135067.02749   3212799.18047                  22804841.0024
        46.0004         32.5004
  24168694.1754    2441495.65249   1898403.75446                  24168694.1224
        38.0004         19.2504
  20288201.6074   -3709430.45349  -2881274.74248                  20288198.1774
        45.5004         41.5004
  20593088.0904    1671851.44949   1298806.05148                  20593085.0054
        50.5004         41.0004
  23502157.9294    5833915.13749   4528007.69547                  23502156.2754
        43.7504         28.0004
  22350978.5794   -3900519.66449  -3030543.33647                  22350973.7684
        43.7504         36.5004
  24333985.5024    8636069.57849   6707370.49646                  24333986.0814
        40.5004         20.0004
  21474969.3994    2234242.92249   1732384.98848                  21474964.5114
        50.2504         39.5004
  24008155.6154    -761135.90248   -908351.12546                  24008154.1114
        35.5004         20.0004
  24710032.3014
        36.0004
 04  7  1 18 41 15.0000000  0 10G 3G 9G14G15G18G19G21G22G25G11
  22810395.6324    4164251.75849   3235540.48047                  22810395.1134
        45.5004         31.5004
  24173588.1254    2467207.92649   1918439.27046                  24173586.2784
        37.2504         19.2504
  20287261.4764   -3714371.45749  -2885124.87148                  20287257.8904
        46.0004         42.0004
  20596811.2684    1691419.00449   1314053.48048                  20596808.8384
        51.0004         41.0004
  23507717.6774    5863130.65649   4550773.00047                  23507715.6234
        41.5004         26.0004
  22350050.1034   -3905399.08649  -3034345.48447                  22350045.2874
        44.5004         36.2504
  24342846.1864    8682628.60249   6743650.19146                  24342846.7474
        42.0004         21.2504
  21477625.4644    2248201.79749   1743262.03148                  21477621.0464
        50.0004         40.0004
  23997641.0394    -816392.60949   -951408.22346                  23997640.2214
        36.7504         19.2504
  24699493.6524     -74574.33258
        34.5004
 04  7  1 18 41 30.0000000  0 10G 3G 9G14G15G18G19G21G22G25G11
  22815963.1244    4193505.70349   3258335.74647                  22815961.6774
        45.0004         31.2504
  24178504.1804    2493044.16848   1938571.39846                  24178503.3924
        35.0004         18.5004
  20286344.3174   -3719190.94549  -2888880.32048                  20286340.9614
        46.2504         41.7504
  20600556.5534    1711099.23449   1329388.71548                  20600554.0364
        51.2504         41.2504
  23513279.2124    5892358.18449   4573547.67647                  23513277.3474
        43.5004         26.5004
  22349147.3834   -3910141.75449  -3038041.07447                  22349142.9984
        43.7504         35.7504
  24351713.1924    8729226.07849   6779959.84846                  24351713.3724
        41.0004         21.0004
  21480287.2494    2262190.52049   1754162.33247                  21480282.8904
        50.0004         39.0004
  23987126.4294    -871648.57049   -994464.70746                  23987125.4924
        38.0004         17.5004
  24688959.2544    -129936.10948
        35.5004
 04  7  1 18 41 45.0000000  0 10G 3G 9G14G15G18G19G21G22G25G11
  22821543.0294    4222830.43049   3281186.16847                  22821541.6374
        45.5004         30.7504
  24183445.0104    2519006.18049   1958801.50046                  24183444.0394
        38.5004         18.5004
  20285450.9314   -3723886.98049  -2892539.56648                  20285447.1454
        46.2504         42.0004
  20604323.1314    1730894.04749   1344813.22748                  20604321.3014
        51.0004         41.5004
  23518843.5734    5921599.69149   4596333.21947                  23518841.2724
        42.5004         26.5004
  22348271.3214   -3914745.83249  -3041628.68047                  22348267.5364
        45.0004         36.7504
  24360588.0414    8775863.77349   6816300.86346                  24360588.0394
        40.5004         18.2504
  21482955.5544    2276211.02749   1765087.39847                  21482950.8924
        51.0004         38.7504
  23976611.8974    -926901.47749  -1037518.89846                  23976611.1224
        37.5004         19.0004
  24678427.5114    -185282.34849
        36.2504
 04  7  1 18 42  0.0000000  0 10G 3G 9G14G15G18G19G21G22G25G11
  22827136.1024    4252220.70749   3304087.63747                  22827134.4074
        45.5004         32.0004
  24188409.0644    2545088.86349   1979125.66046                  24188408.1634
        39.2504         19.0004
  20284579.3034   -3728464.70349  -2896106.61348                  20284575.9284
        46.0004         41.2504
  20608110.6944    1750798.54749   1360323.22348                  20608108.7794
        51.2504         41.0004
  23524410.0134    5950850.38349   4619125.94546                  23524406.9224
        42.7504         25.2504
  22347421.0304   -3919216.20349  -3045112.09447                  22347416.7134
        45.0004         36.7504
  24369469.7524    8822536.55949   6852669.19946                  24369469.2914
        41.0004         20.5004
  21485628.7194    2290258.45749   1776033.44548                  21485623.9744
        51.0004         39.5004
  23966096.8454    -982155.91049  -1080574.21946                  23966096.3214
        36.0004         19.5004
  24667896.6154    -240617.75848
        34.5004
 04  7  1 18 42 15.0000000  0 10G 3G 9G14G15G18G19G21G22G25G11
  22832741.9304    4281678.12549   3327041.44947                  22832740.1474
        43.7504         32.5004
  24193396.0614    2571293.93849   1999545.13346                  24193393.6454
        37.7504         19.0004
  20283731.0084   -3732922.09449  -2899579.91048                  20283727.9464
        47.2504         42.0004
  20611920.0854    1770814.62549   1375920.15648                  20611917.8304
        51.2504         41.2504
  23529978.3454    5980112.17249   4641927.32847                  23529975.2424
        43.0004         26.0004
  22346595.3524   -3923551.05549  -3048489.89147                  22346592.3284
        45.2504         37.2504
  24378358.1964    8869246.28549   6889066.28946                  24378357.3304
        40.2504         19.0004
  21488307.1854    2304334.82849   1787002.03548                  21488302.8284
        49.2504         39.5004
  23955583.2894   -1037409.39848  -1123628.79746                  23955582.5814
        35.7504         19.2504
  24657369.6804    -295939.98048
        35.0004
 04  7  1 18 42 30.0000000  0 10G 3G 9G14G15G18G19G21G22G25G11
  22838359.7294    4311200.43049   3350045.82047                  22838358.7904
        44.5004         32.5004
  24198405.1324    2597619.19149   2020058.32046                  24198404.2924
        39.2504         19.2504
  20282905.7974   -3737261.30149  -2902961.10248                  20282902.2804
        47.2504         42.2504
  20615749.9054    1790940.19549   1391602.42248                  20615747.5104
        51.0004         41.0004
  23535548.9194    6009383.09449   4664735.82847                  23535545.6134
        42.0004         27.5004
  22345796.3584   -3927752.30949  -3051763.60247                  22345792.4134
        46.0004         37.2504
  24387253.5474    8915990.69149   6925490.45346                  24387252.9494
        40.0004         18.5004
  21490990.8554    2318438.04749   1797991.55947                  21490986.1254
        49.2504         39.0004
  23945067.5314   -1092663.67249  -1166683.95746                  23945068.5824
        37.5004         20.5004
  24646844.3854    -351250.86749
        37.7504
 04  7  1 18 42 45.0000000  0 10G 3G 9G14G15G18G19G21G22G25G11
  22843989.6934    4340787.39549   3373100.57847                  22843988.5054
        44.0004         32.2504
  24203437.7554    2624064.48849   2040665.02746                  24203436.1964
        39.5004         19.0004
  20282102.3434   -3741482.33249  -2906250.21548                  20282099.1624
        48.2504         42.2504
  20619600.2794    1811175.38349   1407370.10248                  20619598.1964
        51.0004         40.5004
  23541120.5724    6038663.29749   4687551.55547                  23541117.4144
        41.2504         28.2504
  22345022.3144   -3931819.98449  -3054933.22347                  22345018.1024
        46.2504         36.5004
  24396155.1364    8962769.54749   6961941.36746                  24396155.2444
        41.2504         20.5004
  21493679.4784    2332568.29349   1809002.13347                  21493675.3374
        49.0004         38.7504
  23934552.9364   -1147918.26649  -1209739.39146                  23934553.5124
        37.2504         19.2504
  24636321.8994    -406550.16149
        38.0004
 04  7  1 18 43  0.0000000  0 10G 3G 9G14G15G18G19G21G22G25G11
  22849633.2574    4370443.09449   3396208.91447                  22849632.6244
        45.5004         32.5004
  24208492.8274    2650634.04349   2061368.55946                  24208491.7414
        38.0004         17.7504
  20281322.3024   -3745580.85949  -2909443.87548                  20281319.1174
        48.0004         41.7504
  20623472.7884    1831524.68049   1423226.66848                  20623470.2064
        51.5004         41.0004
  23546695.1984    6067957.24249   4710377.96547                  23546692.2114
        41.0004         28.0004
  22344274.2774   -3935749.59049  -3057995.26647                  22344270.4524
        46.7504         36.0004
  24405064.2704    9009587.24649   6998422.62946                  24405064.4564
        41.2504         22.0004
  21496374.4874    2346730.03149   1820037.25847                  21496370.0264
        50.2504         39.2504
  23924039.2284   -1203168.28549  -1252791.28146                  23924039.6274
        36.5004         18.5004
  24625801.7734    -461832.71949   -345740.77756                  24625794.3054
        38.2504         18.5004
 04  7  1 18 43 15.0000000  0 10G 3G 9G14G15G18G19G21G22G25G11
  22855289.0044    4400164.83249   3419368.69147                  22855288.5524
        45.0004         32.5004
  24213572.4324    2677325.16449   2082166.82446                  24213570.6044
        37.0004         17.7504
  20280565.4854   -3749559.38749  -2912544.02048                  20280561.8204
        48.7504         42.2504
  20627366.1344    1851985.50049   1439170.16048                  20627363.9314
        51.0004         41.0004
  23552271.5844    6097262.41049   4733213.11747                  23552269.6284
        41.5004         27.2504
  22343552.7484   -3939543.82449  -3060951.82447                  22343548.2334
        47.2504         36.0004
  24413980.9494    9056440.93049   7034931.89846                  24413980.7004
        42.2504         22.5004
  21499074.9884    2360920.69949   1831094.91448                  21499070.0334
        50.7504         39.5004
  23913525.9154   -1258415.84849  -1295841.19146                  23913527.1394
        37.7504         19.0004
  24615284.1154    -517101.17249   -388807.11746                  24615277.9054
        37.7504         14.7504
 04  7  1 18 43 30.0000000  0 10G 3G 9G14G15G18G19G21G22G25G11
  22860956.7474    4429951.65249   3442579.18447                  22860956.6194
        44.0004         31.5004
  24218674.3724    2704137.10549   2103059.19146                  24218673.5524
        38.0004         17.7504
  20279830.7704   -3753418.62549  -2915551.21548                  20279827.3484
        49.0004         42.0004
  20631280.9104    1872557.30949   1455200.12148                  20631278.5844
        52.0004         41.0004
  23557850.6144    6126578.32849   4756056.67247                  23557847.9684
        42.5004         28.0004
  22342856.2834   -3943203.04749  -3063803.16047                  22342851.6944
        48.5004         35.5004
  24422903.1484    9103330.16049   7071468.88346                  24422904.1894
        42.0004         21.7504
  21501780.9634    2375139.83249   1842174.74247                  21501776.5144
        50.7504         39.0004
  23903013.0044   -1313661.21549  -1338889.43746                  23903013.9084
        38.2504         20.5004
  24604768.5264    -572355.47749   -431862.42246                  24604764.8064
        37.0004         16.2504
 04  7  1 18 43 45.0000000  0 10G 3G 9G14G15G18G19G21G22G25G11
  22866638.4134    4459805.34049   3465841.75847                  22866637.1654
        45.0004         32.5004
  24223800.2314    2731071.60549   2124047.14846                  24223798.4714
        39.7504         17.7504
  20279119.5004   -3757156.49249  -2918463.83248                  20279115.7424
        49.2504         42.0004
  20635217.2134    1893242.13749   1471318.14848                  20635214.8094
        51.0004         40.7504
  23563431.6014    6155907.11349   4778910.23047                  23563429.5344
        44.0004         28.0004
  22342185.6944   -3946725.23449  -3066547.73047                  22342181.5494
        47.7504         35.5004
  24431833.0044    9150256.85549   7108035.05546                  24431833.9314
        40.5004         20.0004
  21504492.2144    2389389.48849   1853278.37547                  21504487.7984
        49.5004         38.2504
  23892500.2074   -1368901.91449  -1381934.02346                  23892502.1124
        38.5004         21.0004
  24594257.9754    -627593.52349   -474904.95746                  24594253.6224
        37.7504         16.2504
 04  7  1 18 44  0.0000000  0 10G 3G 9G14G15G18G19G21G22G25G11
  22872332.0344    4489725.12949   3489155.84847                  22872330.8554
        43.5004         32.0004
  24228949.5784    2758128.28549   2145130.21146                  24228946.6594
        39.0004         19.0004
  20278431.5514   -3760773.50449  -2921282.28548                  20278427.7304
        49.5004         41.7504
  20639174.8774    1914039.53549   1487523.91048                  20639172.6154
        51.5004         41.7504
  23569014.3624    6185248.39149   4801773.53547                  23569012.2334
        42.2504         26.5004
  22341541.5914   -3950110.80149  -3069185.84047                  22341537.6484
        48.5004         36.5004
  24440770.2104    9197220.52049   7144630.03146                  24440770.7984
        39.0004         19.0004
  21507209.9464    2403669.24649   1864405.44947                  21507205.6214
        49.5004         39.0004
  23881989.4814   -1424137.97349  -1424975.00846                  23881990.1274
        38.2504         20.5004
  24583749.5774    -682815.13749   -517934.75446                  24583745.9524
        39.2504         16.2504
 04  7  1 18 44 15.0000000  0 10G 3G 9G14G15G18G19G21G22G25G11
  22878037.6804    4519709.92649   3512520.61347                  22878036.2434
        45.5004         32.0004
  24234121.0474    2785305.93849   2166307.57046                  24234119.2974
        38.0004         18.5004
  20277765.9554   -3764270.62149  -2924007.30948                  20277762.2944
        49.0004         42.0004
  20643153.6604    1934948.71549   1503816.77348                  20643151.3444
        51.5004         41.0004
  23574600.6794    6214601.36349   4824645.94147                  23574598.4254
        43.5004         26.5004
  22340922.4984   -3953360.60549  -3071718.15647                  22340919.4564
        48.0004         36.0004
  24449713.0454    9244220.12149   7181252.96546                  24449714.5254
        37.5004         17.7504
  21509932.9054    2417978.39149   1875555.42647                  21509928.2024
        50.0004         39.0004
  23871479.1904   -1479369.70349  -1468012.64546                  23871480.7114
        40.5004         20.0004
  24573245.0784    -738021.00049   -560952.27746                  24573240.4484
        40.0004         17.7504
 04  7  1 18 44 30.0000000  0 10G 3G 9G14G15G18G19G21G22G25G11
  22883756.1044    4549760.00849   3535936.24647                  22883754.9944
        45.0004         31.7504
  24239315.8044    2812604.89549   2187579.46146                  24239314.7134
        39.0004         19.2504
  20277123.2364   -3767647.39849  -2926638.56248                  20277120.0254
        49.2504         41.5004
  20647153.9094    1955970.09449   1520197.06348                  20647151.9344
        51.5004         41.5004
  23580188.6624    6243966.73849   4847528.03146                  23580186.4414
        43.0004         25.0004
  22340330.9554   -3956474.30149  -3074144.41047                  22340326.8484
        48.2504         35.7504
  24458665.1124    9291255.85249   7217904.13746                  24458664.9564
        38.0004         18.2504
  21512661.6194    2432317.37949   1886728.65247                  21512656.8044
        50.2504         38.5004
  23860970.4924   -1534596.22349  -1511046.18446                  23860971.0584
        40.0004         21.2504
  24562741.6604    -793210.32449   -603956.95746                  24562739.0014
        39.7504         18.2504
 04  7  1 18 44 45.0000000  0 10G 3G 9G14G15G18G19G21G22G25G11
  22889486.9484    4579874.39849   3559401.98847                  22889486.0584
        43.5004         31.7504
  24244534.1384    2840024.34449   2208945.25846                  24244532.7984
        39.2504         19.2504
  20276503.4784   -3770904.62149  -2929176.66048                  20276499.9424
        49.0004         41.7504
  20651175.0774    1977103.14849   1536664.37148                  20651173.4634
        51.5004         40.2504
  23585779.3644    6273343.78149   4870419.23046                  23585775.7044
        43.7504         25.5004
  22339763.6724   -3959452.51649  -3076465.10947                  22339759.9724
        48.5004         36.5004
  24467621.0644    9338326.94549   7254582.84846                  24467622.1524
        38.7504         19.2504
  21515395.9534    2446685.63749   1897924.69147                  21515391.0214
        49.2504         39.0004
  23850461.4034   -1589817.75849  -1554075.84046                  23850462.7864
        40.7504         20.5004
  24552242.8864    -848383.38349   -646948.85246                  24552240.5704
        41.7504         16.2504
 04  7  1 18 45  0.0000000  0 10G 3G 9G14G15G18G19G21G22G25G11
  22895229.7274    4610056.15649   3582920.21147                  22895228.8274
        45.0004         31.5004
  24249775.3294    2867567.35549   2230407.30946                  24249773.7484
        41.0004         20.0004
  20275906.9374   -3774039.13349  -2931619.13348                  20275903.3174
        50.0004         42.0004
  20655218.6574    1998351.03149   1553221.14848                  20655216.4144
        51.0004         40.5004
  23591371.2934    6302735.86349   4893322.13347                  23591369.7924
        42.2504         26.5004
  22339223.8524   -3962291.96949  -3078677.68447                  22339219.6074
        48.5004         36.0004
  24476587.0034    9385436.82049   7291291.68846                  24476587.1194
        40.2504         20.0004
  21518136.2384    2461086.52349   1909146.16047                  21518131.2934
        50.2504         38.5004
  23839954.7504   -1645030.62149  -1597098.75446                  23839955.3294
        40.0004         21.5004
  24541747.4004    -903536.46949   -689925.23846                  24541744.4614
        41.2504         16.2504
 04  7  1 18 45 15.0000000  0 10G 3G 9G14G15G18G19G21G22G25G11
  22900986.1974    4640304.61349   3606490.40647                  22900985.1064
        45.0004         31.0004
  24255040.0744    2895233.56649   2251965.34846                  24255038.6004
        41.2504         21.0004
  20275333.7584   -3777051.10549  -2933966.12148                  20275330.0074
        50.0004         41.7504
  20659283.8974    2019713.52349   1569867.24648                  20659281.2994
        51.0004         40.5004
  23596968.2374    6332142.80949   4916236.61346                  23596965.2024
        42.7504         25.5004
  22338709.4284   -3964992.83649  -3080782.26647                  22338705.9344
        47.5004         36.5004
  24485558.6634    9432584.78149   7328030.30946                  24485558.8164
        41.0004         21.2504
  21520882.8144    2475519.79349   1920392.85247                  21520877.6364
        49.5004         38.5004
  23829449.7474   -1700234.59449  -1640114.71946                  23829449.8144
        40.5004         20.5004
  24531256.1204    -958669.68049   -732886.21146                  24531252.6364
        41.2504         17.0004
